Time,TemperatureF,DewpointF,PressureIn,WindDirection,WindDirectionDegrees,WindSpeedMPH,WindSpeedGustMPH,Humidity,HourlyPrecipIn,Conditions,Clouds,dailyrainin,SoftwareType,DateUTC
2013-01-01 00:00:00,44.1,42.8,-100.00,NNE,31,4.0,9.0,95,0.00,,,0.31,meteohub,2013-01-01 06:00:00,
2013-01-01 00:02:00,44.1,42.8,-100.00,NNE,31,3.0,9.0,95,0.00,,,0.31,meteohub,2013-01-01 06:02:00,
2013-01-01 00:03:00,44.1,42.8,-100.00,NNE,31,5.0,9.0,95,0.00,,,0.31,meteohub,2013-01-01 06:03:00,
2013-01-01 00:05:00,44.1,42.8,-100.00,NNE,31,4.0,9.0,95,0.00,,,0.00,meteohub,2013-01-01 06:05:00,
2013-01-01 00:07:00,44.1,42.8,-100.00,NNE,31,5.0,9.0,95,0.00,,,0.00,meteohub,2013-01-01 06:07:00,
2013-01-01 00:08:00,44.1,42.8,-100.00,NNE,31,2.0,9.0,95,0.00,,,0.00,meteohub,2013-01-01 06:08:00,
2013-01-01 00:09:00,44.1,42.8,-100.00,NNE,31,4.0,9.0,95,0.00,,,0.00,meteohub,2013-01-01 06:09:00,
2013-01-01 00:10:00,44.1,42.8,-100.00,NNE,31,3.0,7.0,95,0.00,,,0.00,meteohub,2013-01-01 06:10:00,
2013-01-01 00:13:00,43.9,42.6,-100.00,NNE,25,4.0,7.0,95,0.00,,,0.00,meteohub,2013-01-01 06:13:00,
2013-01-01 00:14:00,43.9,42.6,-100.00,NNE,24,4.0,7.0,95,0.00,,,0.00,meteohub,2013-01-01 06:14:00,
2013-01-01 00:16:00,43.9,42.6,-100.00,NNE,19,5.0,8.0,95,0.00,,,0.00,meteohub,2013-01-01 06:16:00,
2013-01-01 00:18:00,43.9,42.6,-100.00,NNE,19,4.0,8.0,95,0.00,,,0.00,meteohub,2013-01-01 06:18:00,
2013-01-01 00:20:00,43.9,42.6,-100.00,NNE,19,6.0,8.0,95,0.00,,,0.00,meteohub,2013-01-01 06:20:00,
2013-01-01 00:22:00,43.9,42.6,-100.00,NNE,22,4.0,10.0,95,0.00,,,0.00,meteohub,2013-01-01 06:22:00,
2013-01-01 00:23:00,43.9,42.6,-100.00,NNE,22,4.0,10.0,95,0.00,,,0.00,meteohub,2013-01-01 06:23:00,
2013-01-01 00:24:00,43.9,42.6,-100.00,NNE,22,3.0,10.0,95,0.00,,,0.00,meteohub,2013-01-01 06:24:00,
2013-01-01 00:25:00,43.9,42.6,-100.00,NNE,22,2.0,10.0,95,0.00,,,0.00,meteohub,2013-01-01 06:25:00,
2013-01-01 00:27:00,43.5,42.3,-100.00,NNE,22,1.0,10.0,95,0.00,,,0.00,meteohub,2013-01-01 06:27:00,
2013-01-01 00:29:00,43.5,42.3,-100.00,NNE,22,2.0,10.0,95,0.00,,,0.00,meteohub,2013-01-01 06:29:00,
2013-01-01 00:30:00,43.5,42.3,-100.00,NNE,22,5.0,10.0,95,0.00,,,0.00,meteohub,2013-01-01 06:30:00,
2013-01-01 00:32:00,43.5,42.3,-100.00,NNE,26,5.0,10.0,95,0.00,,,0.00,meteohub,2013-01-01 06:32:00,
2013-01-01 00:34:00,43.5,42.3,-100.00,NNE,32,4.0,10.0,95,0.00,,,0.00,meteohub,2013-01-01 06:34:00,
2013-01-01 00:36:00,43.5,42.3,-100.00,NE,34,4.0,8.0,95,0.00,,,0.00,meteohub,2013-01-01 06:36:00,
2013-01-01 00:37:00,43.5,42.3,-100.00,NE,35,2.0,8.0,95,0.00,,,0.00,meteohub,2013-01-01 06:37:00,
2013-01-01 00:39:00,43.5,42.3,-100.00,NE,35,2.0,8.0,95,0.00,,,0.00,meteohub,2013-01-01 06:39:00,
2013-01-01 00:42:00,43.5,42.3,-100.00,NE,36,3.0,8.0,95,0.00,,,0.00,meteohub,2013-01-01 06:42:00,
2013-01-01 00:43:00,43.5,42.3,-100.00,NE,36,2.0,8.0,95,0.00,,,0.00,meteohub,2013-01-01 06:43:00,
2013-01-01 00:44:00,43.5,42.3,-100.00,NE,36,2.0,8.0,95,0.00,,,0.00,meteohub,2013-01-01 06:44:00,
2013-01-01 00:45:00,43.5,42.3,-100.00,NE,38,5.0,8.0,95,0.00,,,0.00,meteohub,2013-01-01 06:45:00,
2013-01-01 00:47:00,43.5,42.3,-100.00,NE,41,3.0,8.0,95,0.00,,,0.00,meteohub,2013-01-01 06:47:00,
2013-01-01 00:48:00,43.5,42.3,-100.00,NE,41,1.0,8.0,95,0.00,,,0.00,meteohub,2013-01-01 06:48:00,
2013-01-01 00:49:00,43.5,42.3,-100.00,NE,41,3.0,8.0,95,0.00,,,0.00,meteohub,2013-01-01 06:49:00,
2013-01-01 00:51:00,43.5,42.3,-100.00,NE,41,0.0,7.0,95,0.00,,,0.00,meteohub,2013-01-01 06:51:00,
2013-01-01 00:53:00,43.5,42.3,-100.00,NE,41,2.0,7.0,95,0.00,,,0.00,meteohub,2013-01-01 06:53:00,
2013-01-01 00:55:00,43.5,42.3,-100.00,NE,41,2.0,7.0,95,0.00,,,0.00,meteohub,2013-01-01 06:55:00,
2013-01-01 00:56:00,43.3,42.1,-100.00,NE,41,6.0,7.0,95,0.00,,,0.00,meteohub,2013-01-01 06:56:00,
2013-01-01 00:58:00,43.3,42.1,-100.00,NE,41,3.0,7.0,95,0.00,,,0.00,meteohub,2013-01-01 06:58:00,
2013-01-01 01:00:00,43.3,42.1,-100.00,NE,41,2.0,7.0,95,0.00,,,0.00,meteohub,2013-01-01 07:00:00,
2013-01-01 01:02:00,43.3,42.1,-100.00,NE,41,2.0,7.0,95,0.00,,,0.00,meteohub,2013-01-01 07:02:00,
2013-01-01 01:03:00,43.3,42.1,-100.00,NE,41,2.0,7.0,95,0.00,,,0.00,meteohub,2013-01-01 07:03:00,
2013-01-01 01:06:00,43.3,42.1,-100.00,NE,41,2.0,6.0,95,0.00,,,0.00,meteohub,2013-01-01 07:06:00,
2013-01-01 01:07:00,43.3,42.1,-100.00,NE,41,0.0,6.0,95,0.00,,,0.00,meteohub,2013-01-01 07:07:00,
2013-01-01 01:08:00,43.2,41.9,-100.00,NE,41,4.0,6.0,95,0.00,,,0.00,meteohub,2013-01-01 07:08:00,
2013-01-01 01:11:00,43.2,41.9,-100.00,NE,42,3.0,7.0,95,0.00,,,0.00,meteohub,2013-01-01 07:11:00,
2013-01-01 01:12:00,43.2,41.9,-100.00,NE,42,4.0,7.0,95,0.00,,,0.00,meteohub,2013-01-01 07:12:00,
2013-01-01 01:13:00,43.2,41.9,-100.00,NE,42,0.0,7.0,95,0.00,,,0.00,meteohub,2013-01-01 07:13:00,
2013-01-01 01:15:00,43.2,41.9,-100.00,NE,42,2.0,7.0,95,0.00,,,0.00,meteohub,2013-01-01 07:15:00,
2013-01-01 01:16:00,43.2,41.9,-100.00,NE,42,2.0,7.0,95,0.00,,,0.00,meteohub,2013-01-01 07:16:00,
2013-01-01 01:17:00,43.2,41.9,-100.00,NE,42,3.0,7.0,95,0.00,,,0.00,meteohub,2013-01-01 07:17:00,
2013-01-01 01:19:00,43.2,41.9,-100.00,NE,42,3.0,7.0,95,0.00,,,0.00,meteohub,2013-01-01 07:19:00,
2013-01-01 01:20:00,43.2,41.9,-100.00,NE,42,1.0,7.0,95,0.00,,,0.00,meteohub,2013-01-01 07:20:00,
2013-01-01 01:21:00,43.2,41.9,-100.00,NE,42,1.0,7.0,95,0.00,,,0.00,meteohub,2013-01-01 07:21:00,
2013-01-01 01:22:00,43.2,41.9,-100.00,NE,42,0.0,7.0,95,0.00,,,0.00,meteohub,2013-01-01 07:22:00,
2013-01-01 01:24:00,43.2,41.9,-100.00,NE,42,2.0,7.0,95,0.00,,,0.00,meteohub,2013-01-01 07:24:00,
2013-01-01 01:25:00,43.2,41.9,-100.00,NE,42,2.0,7.0,95,0.00,,,0.00,meteohub,2013-01-01 07:25:00,
2013-01-01 01:26:00,43.2,41.9,-100.00,NE,42,2.0,4.0,95,0.00,,,0.00,meteohub,2013-01-01 07:26:00,
2013-01-01 01:27:00,43.2,41.9,-100.00,NE,42,2.0,4.0,95,0.00,,,0.00,meteohub,2013-01-01 07:27:00,
2013-01-01 01:29:00,43.2,41.9,-100.00,NE,42,0.0,4.0,95,0.00,,,0.00,meteohub,2013-01-01 07:29:00,
2013-01-01 01:30:00,43.2,41.9,-100.00,NE,42,0.0,4.0,95,0.00,,,0.00,meteohub,2013-01-01 07:30:00,
2013-01-01 01:31:00,43.2,41.9,-100.00,NE,42,1.0,4.0,95,0.00,,,0.00,meteohub,2013-01-01 07:31:00,
2013-01-01 01:32:00,43.2,41.9,-100.00,NE,42,0.0,4.0,95,0.00,,,0.00,meteohub,2013-01-01 07:32:00,
2013-01-01 01:34:00,43.2,41.9,-100.00,NE,42,0.0,4.0,95,0.00,,,0.00,meteohub,2013-01-01 07:34:00,
2013-01-01 01:35:00,43.2,41.9,-100.00,NE,42,0.0,4.0,95,0.00,,,0.00,meteohub,2013-01-01 07:35:00,
2013-01-01 01:37:00,43.2,41.9,-100.00,NE,42,2.0,4.0,95,0.00,,,0.00,meteohub,2013-01-01 07:37:00,
2013-01-01 01:38:00,43.2,41.9,-100.00,NE,42,1.0,4.0,95,0.00,,,0.00,meteohub,2013-01-01 07:38:00,
2013-01-01 01:40:00,43.2,41.9,-100.00,NE,42,0.0,4.0,95,0.00,,,0.00,meteohub,2013-01-01 07:40:00,
2013-01-01 01:41:00,43.2,41.9,-100.00,NE,42,0.0,4.0,95,0.00,,,0.00,meteohub,2013-01-01 07:41:00,
2013-01-01 01:42:00,43.2,41.9,-100.00,NE,42,0.0,4.0,95,0.00,,,0.00,meteohub,2013-01-01 07:42:00,
2013-01-01 01:44:00,43.2,41.9,-100.00,NE,42,0.0,4.0,95,0.00,,,0.00,meteohub,2013-01-01 07:44:00,
2013-01-01 01:45:00,43.2,41.9,-100.00,NE,42,0.0,3.0,95,0.00,,,0.00,meteohub,2013-01-01 07:45:00,
2013-01-01 01:46:00,43.2,41.9,-100.00,NE,42,2.0,3.0,95,0.00,,,0.00,meteohub,2013-01-01 07:46:00,
2013-01-01 01:47:00,43.2,41.9,-100.00,NE,42,3.0,3.0,95,0.00,,,0.00,meteohub,2013-01-01 07:47:00,
2013-01-01 01:50:00,43.2,41.9,-100.00,NE,42,0.0,3.0,95,0.00,,,0.00,meteohub,2013-01-01 07:50:00,
2013-01-01 01:51:00,43.2,41.9,-100.00,NE,42,0.0,4.0,95,0.00,,,0.00,meteohub,2013-01-01 07:51:00,
2013-01-01 01:52:00,43.2,41.9,-100.00,NE,42,0.0,4.0,95,0.00,,,0.00,meteohub,2013-01-01 07:52:00,
2013-01-01 01:55:00,43.2,41.9,-100.00,NE,42,1.0,4.0,95,0.00,,,0.00,meteohub,2013-01-01 07:55:00,
2013-01-01 01:56:00,43.2,41.9,-100.00,NE,42,0.0,4.0,95,0.00,,,0.00,meteohub,2013-01-01 07:56:00,
2013-01-01 01:58:00,43.2,41.9,-100.00,NE,42,3.0,4.0,95,0.00,,,0.00,meteohub,2013-01-01 07:58:00,
2013-01-01 02:00:00,43.2,41.9,-100.00,NE,42,0.0,4.0,95,0.00,,,0.00,meteohub,2013-01-01 08:00:00,
2013-01-01 02:01:00,43.2,41.9,-100.00,NE,42,0.0,4.0,95,0.00,,,0.00,meteohub,2013-01-01 08:01:00,
2013-01-01 02:02:00,43.2,41.9,-100.00,NE,42,0.0,4.0,95,0.00,,,0.00,meteohub,2013-01-01 08:02:00,
2013-01-01 02:03:00,43.2,41.9,-100.00,NE,42,1.0,4.0,95,0.00,,,0.00,meteohub,2013-01-01 08:03:00,
2013-01-01 02:05:00,43.2,41.9,-100.00,NE,42,2.0,4.0,95,0.00,,,0.00,meteohub,2013-01-01 08:05:00,
2013-01-01 02:07:00,43.2,41.9,-100.00,NE,42,0.0,3.0,95,0.00,,,0.00,meteohub,2013-01-01 08:07:00,
2013-01-01 02:08:00,43.0,41.7,-100.00,NE,42,0.0,3.0,95,0.00,,,0.00,meteohub,2013-01-01 08:08:00,
2013-01-01 02:10:00,43.2,41.9,-100.00,NE,42,0.0,3.0,95,0.00,,,0.00,meteohub,2013-01-01 08:10:00,
2013-01-01 02:12:00,43.2,41.9,-100.00,NE,42,0.0,3.0,95,0.00,,,0.00,meteohub,2013-01-01 08:12:00,
2013-01-01 02:13:00,43.2,41.9,-100.00,NE,42,0.0,3.0,95,0.00,,,0.00,meteohub,2013-01-01 08:13:00,
2013-01-01 02:16:00,43.2,41.9,-100.00,NE,42,0.0,3.0,95,0.00,,,0.00,meteohub,2013-01-01 08:16:00,
2013-01-01 02:17:00,43.2,41.9,-100.00,NE,42,0.0,3.0,95,0.00,,,0.00,meteohub,2013-01-01 08:17:00,
2013-01-01 02:18:00,43.2,41.9,-100.00,NE,42,0.0,3.0,95,0.00,,,0.00,meteohub,2013-01-01 08:18:00,
2013-01-01 02:21:00,43.2,41.9,-100.00,NE,42,3.0,3.0,95,0.00,,,0.00,meteohub,2013-01-01 08:21:00,
2013-01-01 02:22:00,43.2,41.5,-100.00,NE,42,3.0,3.0,94,0.00,,,0.00,meteohub,2013-01-01 08:22:00,
2013-01-01 02:23:00,43.2,41.9,-100.00,NE,42,2.0,2.0,95,0.00,,,0.00,meteohub,2013-01-01 08:23:00,
2013-01-01 02:26:00,43.0,41.7,-100.00,NE,42,0.0,3.0,95,0.00,,,0.00,meteohub,2013-01-01 08:26:00,
2013-01-01 02:27:00,43.0,41.7,-100.00,NE,42,0.0,3.0,95,0.00,,,0.00,meteohub,2013-01-01 08:27:00,
2013-01-01 02:28:00,43.0,41.7,-100.00,NE,42,0.0,3.0,95,0.00,,,0.00,meteohub,2013-01-01 08:28:00,
2013-01-01 02:31:00,43.0,41.4,-100.00,NE,42,2.0,3.0,94,0.00,,,0.00,meteohub,2013-01-01 08:31:00,
2013-01-01 02:33:00,43.0,41.4,-100.00,NE,42,4.0,4.0,94,0.00,,,0.00,meteohub,2013-01-01 08:33:00,
2013-01-01 02:34:00,43.0,41.4,-100.00,NE,42,3.0,3.0,94,0.00,,,0.00,meteohub,2013-01-01 08:34:00,
2013-01-01 02:36:00,43.0,41.4,-100.00,NE,42,1.0,4.0,94,0.00,,,0.00,meteohub,2013-01-01 08:36:00,
2013-01-01 02:38:00,43.0,41.4,-100.00,NE,42,2.0,4.0,94,0.00,,,0.00,meteohub,2013-01-01 08:38:00,
2013-01-01 02:39:00,43.0,41.4,-100.00,NE,42,2.0,4.0,94,0.00,,,0.00,meteohub,2013-01-01 08:39:00,
2013-01-01 02:42:00,43.0,41.4,-100.00,NE,42,3.0,4.0,94,0.00,,,0.00,meteohub,2013-01-01 08:42:00,
2013-01-01 02:44:00,43.0,41.4,-100.00,NE,42,2.0,4.0,94,0.00,,,0.00,meteohub,2013-01-01 08:44:00,
2013-01-01 02:48:00,43.0,41.4,-100.00,NE,42,0.0,4.0,94,0.00,,,0.00,meteohub,2013-01-01 08:48:00,
2013-01-01 02:49:00,43.0,41.4,-100.00,NE,42,0.0,4.0,94,0.00,,,0.00,meteohub,2013-01-01 08:49:00,
2013-01-01 02:50:00,43.0,41.4,-100.00,NE,42,0.0,4.0,94,0.00,,,0.00,meteohub,2013-01-01 08:50:00,
2013-01-01 02:53:00,42.8,41.2,-100.00,NE,42,0.0,4.0,94,0.00,,,0.00,meteohub,2013-01-01 08:53:00,
2013-01-01 02:54:00,42.8,41.2,-100.00,NE,42,1.0,4.0,94,0.00,,,0.00,meteohub,2013-01-01 08:54:00,
2013-01-01 02:55:00,42.8,41.2,-100.00,NE,42,2.0,4.0,94,0.00,,,0.00,meteohub,2013-01-01 08:55:00,
2013-01-01 02:58:00,42.8,41.2,-100.00,NE,42,2.0,4.0,94,0.00,,,0.00,meteohub,2013-01-01 08:58:00,
2013-01-01 02:59:00,42.8,41.2,-100.00,NE,42,1.0,4.0,94,0.00,,,0.00,meteohub,2013-01-01 08:59:00,
2013-01-01 03:00:00,42.8,41.2,-100.00,NE,42,3.0,4.0,94,0.00,,,0.00,meteohub,2013-01-01 09:00:00,
2013-01-01 03:04:00,42.8,41.2,-100.00,NE,42,2.0,5.0,94,0.00,,,0.00,meteohub,2013-01-01 09:04:00,
2013-01-01 03:05:00,42.8,41.2,-100.00,NE,42,3.0,5.0,94,0.00,,,0.00,meteohub,2013-01-01 09:05:00,
2013-01-01 03:09:00,42.8,41.2,-100.00,NE,42,0.0,5.0,94,0.00,,,0.00,meteohub,2013-01-01 09:09:00,
2013-01-01 03:10:00,42.6,41.0,-100.00,NE,42,3.0,5.0,94,0.00,,,0.00,meteohub,2013-01-01 09:10:00,
2013-01-01 03:14:00,42.6,41.0,-100.00,NE,42,4.0,5.0,94,0.00,,,0.00,meteohub,2013-01-01 09:14:00,
2013-01-01 03:15:00,42.6,41.0,-100.00,NE,42,3.0,5.0,94,0.00,,,0.00,meteohub,2013-01-01 09:15:00,
2013-01-01 03:16:00,42.6,41.0,-100.00,NE,42,4.0,5.0,94,0.00,,,0.00,meteohub,2013-01-01 09:16:00,
2013-01-01 03:19:00,42.6,41.0,-100.00,NE,42,1.0,5.0,94,0.00,,,0.00,meteohub,2013-01-01 09:19:00,
2013-01-01 03:20:00,42.6,41.0,-100.00,NE,42,0.0,5.0,94,0.00,,,0.00,meteohub,2013-01-01 09:20:00,
2013-01-01 03:21:00,42.6,41.0,-100.00,NE,42,2.0,5.0,94,0.00,,,0.00,meteohub,2013-01-01 09:21:00,
2013-01-01 03:25:00,42.6,41.0,-100.00,NE,42,3.0,5.0,94,0.00,,,0.00,meteohub,2013-01-01 09:25:00,
2013-01-01 03:26:00,42.6,41.0,-100.00,NE,42,3.0,5.0,94,0.00,,,0.00,meteohub,2013-01-01 09:26:00,
2013-01-01 03:30:00,42.6,41.0,-100.00,NE,41,4.0,5.0,94,0.00,,,0.00,meteohub,2013-01-01 09:30:00,
2013-01-01 03:31:00,42.6,41.0,-100.00,NE,41,3.0,5.0,94,0.00,,,0.00,meteohub,2013-01-01 09:31:00,
2013-01-01 03:35:00,42.6,41.0,-100.00,NE,41,0.0,5.0,94,0.00,,,0.00,meteohub,2013-01-01 09:35:00,
2013-01-01 03:36:00,42.6,41.0,-100.00,NE,41,3.0,5.0,94,0.00,,,0.00,meteohub,2013-01-01 09:36:00,
2013-01-01 03:40:00,42.4,40.8,-100.00,NE,41,2.0,5.0,94,0.00,,,0.00,meteohub,2013-01-01 09:40:00,
2013-01-01 03:41:00,42.4,40.8,-100.00,NE,41,5.0,5.0,94,0.00,,,0.00,meteohub,2013-01-01 09:41:00,
2013-01-01 03:45:00,42.4,40.8,-100.00,NE,40,3.0,6.0,94,0.00,,,0.00,meteohub,2013-01-01 09:45:00,
2013-01-01 03:46:00,42.4,40.8,-100.00,NE,40,4.0,6.0,94,0.00,,,0.00,meteohub,2013-01-01 09:46:00,
2013-01-01 03:47:00,42.3,40.6,-100.00,NE,40,3.0,6.0,94,0.00,,,0.00,meteohub,2013-01-01 09:47:00,
2013-01-01 03:51:00,42.4,40.8,-100.00,NE,40,3.0,6.0,94,0.00,,,0.00,meteohub,2013-01-01 09:51:00,
2013-01-01 03:52:00,42.4,40.8,-100.00,NE,40,3.0,6.0,94,0.00,,,0.00,meteohub,2013-01-01 09:52:00,
2013-01-01 03:57:00,42.3,40.6,-100.00,NE,40,2.0,6.0,94,0.00,,,0.00,meteohub,2013-01-01 09:57:00,
2013-01-01 03:58:00,42.3,40.6,-100.00,NE,40,0.0,6.0,94,0.00,,,0.00,meteohub,2013-01-01 09:58:00,
2013-01-01 04:02:00,42.3,40.6,-100.00,NE,40,3.0,5.0,94,0.00,,,0.00,meteohub,2013-01-01 10:02:00,
2013-01-01 04:04:00,42.3,40.6,-100.00,NE,40,4.0,5.0,94,0.00,,,0.00,meteohub,2013-01-01 10:04:00,
2013-01-01 04:07:00,42.4,40.8,-100.00,NE,40,4.0,5.0,94,0.00,,,0.00,meteohub,2013-01-01 10:07:00,
2013-01-01 04:09:00,42.4,40.8,-100.00,NE,40,4.0,5.0,94,0.00,,,0.00,meteohub,2013-01-01 10:09:00,
2013-01-01 04:12:00,42.4,40.8,-100.00,NE,39,3.0,5.0,94,0.00,,,0.00,meteohub,2013-01-01 10:12:00,
2013-01-01 04:13:00,42.3,40.6,-100.00,NE,39,3.0,5.0,94,0.00,,,0.00,meteohub,2013-01-01 10:13:00,
2013-01-01 04:14:00,42.3,40.6,-100.00,NE,39,3.0,5.0,94,0.00,,,0.00,meteohub,2013-01-01 10:14:00,
2013-01-01 04:17:00,42.3,40.6,-100.00,NE,38,3.0,6.0,94,0.00,,,0.00,meteohub,2013-01-01 10:17:00,
2013-01-01 04:18:00,42.3,40.6,-100.00,NE,39,3.0,6.0,94,0.00,,,0.00,meteohub,2013-01-01 10:18:00,
2013-01-01 04:19:00,42.3,40.6,-100.00,NE,39,3.0,6.0,94,0.00,,,0.00,meteohub,2013-01-01 10:19:00,
2013-01-01 04:23:00,42.3,40.6,-100.00,NE,38,3.0,6.0,94,0.00,,,0.00,meteohub,2013-01-01 10:23:00,
2013-01-01 04:25:00,42.3,40.6,-100.00,NE,39,2.0,6.0,94,0.00,,,0.00,meteohub,2013-01-01 10:25:00,
2013-01-01 04:28:00,42.3,40.6,-100.00,NE,39,3.0,6.0,94,0.00,,,0.00,meteohub,2013-01-01 10:28:00,
2013-01-01 04:29:00,42.3,40.6,-100.00,NE,39,2.0,6.0,94,0.00,,,0.00,meteohub,2013-01-01 10:29:00,
2013-01-01 04:30:00,42.3,40.6,-100.00,NE,39,3.0,6.0,94,0.00,,,0.00,meteohub,2013-01-01 10:30:00,
2013-01-01 04:33:00,42.3,40.6,-100.00,NE,38,2.0,5.0,94,0.00,,,0.00,meteohub,2013-01-01 10:33:00,
2013-01-01 04:34:00,42.3,40.6,-100.00,NE,38,3.0,5.0,94,0.00,,,0.00,meteohub,2013-01-01 10:34:00,
2013-01-01 04:35:00,42.3,40.6,-100.00,NE,38,3.0,5.0,94,0.00,,,0.00,meteohub,2013-01-01 10:35:00,
2013-01-01 04:38:00,42.3,40.6,-100.00,NE,38,2.0,5.0,94,0.00,,,0.00,meteohub,2013-01-01 10:38:00,
2013-01-01 04:39:00,42.3,40.6,-100.00,NE,38,4.0,5.0,94,0.00,,,0.00,meteohub,2013-01-01 10:39:00,
2013-01-01 04:40:00,42.3,40.6,-100.00,NE,38,3.0,5.0,94,0.00,,,0.00,meteohub,2013-01-01 10:40:00,
2013-01-01 04:44:00,42.3,40.6,-100.00,NE,38,3.0,6.0,94,0.00,,,0.00,meteohub,2013-01-01 10:44:00,
2013-01-01 04:46:00,42.3,40.6,-100.00,NE,38,4.0,7.0,94,0.00,,,0.00,meteohub,2013-01-01 10:46:00,
2013-01-01 04:49:00,42.3,40.6,-100.00,NE,38,1.0,7.0,94,0.00,,,0.00,meteohub,2013-01-01 10:49:00,
2013-01-01 04:50:00,42.3,40.6,-100.00,NE,37,3.0,7.0,94,0.00,,,0.00,meteohub,2013-01-01 10:50:00,
2013-01-01 04:51:00,42.3,40.6,-100.00,NE,37,3.0,7.0,94,0.00,,,0.00,meteohub,2013-01-01 10:51:00,
2013-01-01 04:54:00,42.3,40.6,-100.00,NE,37,2.0,7.0,94,0.00,,,0.00,meteohub,2013-01-01 10:54:00,
2013-01-01 04:55:00,42.3,40.6,-100.00,NE,37,4.0,7.0,94,0.00,,,0.00,meteohub,2013-01-01 10:55:00,
2013-01-01 04:56:00,42.3,40.6,-100.00,NE,37,5.0,6.0,94,0.00,,,0.00,meteohub,2013-01-01 10:56:00,
2013-01-01 04:59:00,42.3,40.6,-100.00,NNE,33,1.0,6.0,94,0.00,,,0.00,meteohub,2013-01-01 10:59:00,
2013-01-01 05:00:00,42.3,40.6,-100.00,NNE,33,2.0,6.0,94,0.00,,,0.00,meteohub,2013-01-01 11:00:00,
2013-01-01 05:01:00,42.3,40.6,-100.00,NNE,33,2.0,6.0,94,0.00,,,0.00,meteohub,2013-01-01 11:01:00,
2013-01-01 05:04:00,42.3,40.6,-100.00,NNE,33,4.0,6.0,94,0.00,,,0.00,meteohub,2013-01-01 11:04:00,
2013-01-01 05:05:00,42.3,40.6,-100.00,NNE,28,4.0,6.0,94,0.00,,,0.00,meteohub,2013-01-01 11:05:00,
2013-01-01 05:06:00,42.3,40.6,-100.00,NNE,28,4.0,6.0,94,0.00,,,0.00,meteohub,2013-01-01 11:06:00,
2013-01-01 05:07:00,42.3,40.6,-100.00,NNE,27,5.0,6.0,94,0.00,,,0.00,meteohub,2013-01-01 11:07:00,
2013-01-01 05:09:00,42.3,40.6,-100.00,NNE,26,2.0,6.0,94,0.00,,,0.00,meteohub,2013-01-01 11:09:00,
2013-01-01 05:11:00,42.3,40.6,-100.00,NNE,22,5.0,7.0,94,0.00,,,0.00,meteohub,2013-01-01 11:11:00,
2013-01-01 05:12:00,42.3,40.6,-100.00,NNE,22,5.0,7.0,94,0.00,,,0.00,meteohub,2013-01-01 11:12:00,
2013-01-01 05:15:00,42.3,40.6,-100.00,NNE,15,8.0,8.0,94,0.00,,,0.00,meteohub,2013-01-01 11:15:00,
2013-01-01 05:16:00,42.3,40.6,-100.00,North,11,4.0,10.0,94,0.00,,,0.00,meteohub,2013-01-01 11:16:00,
2013-01-01 05:17:00,42.3,40.6,-100.00,North,11,5.0,10.0,94,0.00,,,0.00,meteohub,2013-01-01 11:17:00,
2013-01-01 05:20:00,42.3,40.5,-100.00,North,355,5.0,10.0,93,0.00,,,0.00,meteohub,2013-01-01 11:20:00,
2013-01-01 05:22:00,42.3,40.6,-100.00,NNW,346,9.0,10.0,94,0.00,,,0.00,meteohub,2013-01-01 11:22:00,
2013-01-01 05:23:00,42.3,40.6,-100.00,NNW,344,5.0,10.0,94,0.00,,,0.00,meteohub,2013-01-01 11:23:00,
2013-01-01 05:26:00,42.3,40.6,-100.00,NNW,340,5.0,11.0,94,0.00,,,0.00,meteohub,2013-01-01 11:26:00,
2013-01-01 05:27:00,42.3,40.6,-100.00,NNW,340,3.0,11.0,94,0.00,,,0.00,meteohub,2013-01-01 11:27:00,
2013-01-01 05:28:00,42.3,40.6,-100.00,NNW,340,4.0,11.0,94,0.00,,,0.00,meteohub,2013-01-01 11:28:00,
2013-01-01 05:31:00,42.3,40.6,-100.00,NNW,335,4.0,11.0,94,0.00,,,0.00,meteohub,2013-01-01 11:31:00,
2013-01-01 05:32:00,42.3,40.6,-100.00,NNW,335,4.0,11.0,94,0.00,,,0.00,meteohub,2013-01-01 11:32:00,
2013-01-01 05:33:00,42.3,40.6,-100.00,NNW,335,4.0,11.0,94,0.00,,,0.00,meteohub,2013-01-01 11:33:00,
2013-01-01 05:36:00,42.3,40.6,-100.00,NNW,331,5.0,11.0,94,0.00,,,0.00,meteohub,2013-01-01 11:36:00,
2013-01-01 05:37:00,42.3,40.6,-100.00,NNW,331,4.0,11.0,94,0.00,,,0.00,meteohub,2013-01-01 11:37:00,
2013-01-01 05:38:00,42.3,40.6,-100.00,NNW,331,9.0,11.0,94,0.00,,,0.00,meteohub,2013-01-01 11:38:00,
2013-01-01 05:42:00,42.3,40.6,-100.00,NNW,338,6.0,12.0,94,0.00,,,0.00,meteohub,2013-01-01 11:42:00,
2013-01-01 05:43:00,42.3,40.6,-100.00,NNW,337,10.0,12.0,94,0.00,,,0.00,meteohub,2013-01-01 11:43:00,
2013-01-01 05:44:00,42.3,40.5,-100.00,NNW,340,9.0,12.0,93,0.00,,,0.00,meteohub,2013-01-01 11:44:00,
2013-01-01 05:47:00,42.3,40.5,-100.00,NNW,338,5.0,12.0,93,0.00,,,0.00,meteohub,2013-01-01 11:47:00,
2013-01-01 05:48:00,42.3,40.5,-100.00,NNW,338,4.0,12.0,93,0.00,,,0.00,meteohub,2013-01-01 11:48:00,
2013-01-01 05:49:00,42.3,40.6,-100.00,NNW,336,4.0,12.0,94,0.00,,,0.00,meteohub,2013-01-01 11:49:00,
2013-01-01 05:52:00,42.3,40.6,-100.00,NNW,333,5.0,12.0,94,0.00,,,0.00,meteohub,2013-01-01 11:52:00,
2013-01-01 05:53:00,42.3,40.6,-100.00,NNW,333,4.0,12.0,94,0.00,,,0.00,meteohub,2013-01-01 11:53:00,
2013-01-01 05:55:00,42.3,40.6,-100.00,NW,326,4.0,11.0,94,0.00,,,0.00,meteohub,2013-01-01 11:55:00,
2013-01-01 05:57:00,42.4,40.8,-100.00,NW,326,4.0,11.0,94,0.00,,,0.00,meteohub,2013-01-01 11:57:00,
2013-01-01 05:58:00,42.4,40.8,-100.00,NNW,327,9.0,11.0,94,0.00,,,0.00,meteohub,2013-01-01 11:58:00,
2013-01-01 06:00:00,42.4,40.6,-100.00,NNW,327,7.0,11.0,93,0.00,,,0.00,meteohub,2013-01-01 12:00:00,
2013-01-01 06:02:00,42.4,40.6,-100.00,NNW,327,5.0,11.0,93,0.00,,,0.00,meteohub,2013-01-01 12:02:00,
2013-01-01 06:03:00,42.4,40.6,-100.00,NNW,327,5.0,11.0,93,0.00,,,0.00,meteohub,2013-01-01 12:03:00,
2013-01-01 06:05:00,42.4,40.6,-100.00,NNW,329,5.0,11.0,93,0.00,,,0.00,meteohub,2013-01-01 12:05:00,
2013-01-01 06:08:00,42.4,40.6,-100.00,NNW,329,6.0,11.0,93,0.00,,,0.00,meteohub,2013-01-01 12:08:00,
2013-01-01 06:10:00,42.3,40.5,-100.00,NNW,329,6.0,11.0,93,0.00,,,0.00,meteohub,2013-01-01 12:10:00,
2013-01-01 06:13:00,42.3,40.5,-100.00,NNW,330,5.0,11.0,93,0.00,,,0.00,meteohub,2013-01-01 12:13:00,
2013-01-01 06:14:00,42.3,40.5,-100.00,NNW,331,6.0,11.0,93,0.00,,,0.00,meteohub,2013-01-01 12:14:00,
2013-01-01 06:15:00,42.3,40.5,-100.00,NNW,332,6.0,11.0,93,0.00,,,0.00,meteohub,2013-01-01 12:15:00,
2013-01-01 06:18:00,42.3,40.5,-100.00,NNW,334,7.0,11.0,93,0.00,,,0.00,meteohub,2013-01-01 12:18:00,
2013-01-01 06:19:00,42.3,40.5,-100.00,NNW,340,5.0,11.0,93,0.00,,,0.00,meteohub,2013-01-01 12:19:00,
2013-01-01 06:21:00,42.3,40.5,-100.00,NNW,340,6.0,11.0,93,0.00,,,0.00,meteohub,2013-01-01 12:21:00,
2013-01-01 06:24:00,42.3,40.5,-100.00,NNW,340,7.0,11.0,93,0.00,,,0.00,meteohub,2013-01-01 12:24:00,
2013-01-01 06:25:00,42.3,40.5,-100.00,NNW,340,4.0,11.0,93,0.00,,,0.00,meteohub,2013-01-01 12:25:00,
2013-01-01 06:27:00,42.3,40.5,-100.00,NNW,340,4.0,11.0,93,0.00,,,0.00,meteohub,2013-01-01 12:27:00,
2013-01-01 06:29:00,42.3,40.5,-100.00,NNW,338,7.0,11.0,93,0.00,,,0.00,meteohub,2013-01-01 12:29:00,
2013-01-01 06:30:00,42.3,40.5,-100.00,NNW,338,4.0,11.0,93,0.00,,,0.00,meteohub,2013-01-01 12:30:00,
2013-01-01 06:32:00,42.3,40.5,-100.00,NNW,340,5.0,11.0,93,0.00,,,0.00,meteohub,2013-01-01 12:32:00,
2013-01-01 06:34:00,42.3,40.5,-100.00,NNW,340,5.0,11.0,93,0.00,,,0.00,meteohub,2013-01-01 12:34:00,
2013-01-01 06:35:00,42.3,40.5,-100.00,NNW,340,2.0,11.0,93,0.00,,,0.00,meteohub,2013-01-01 12:35:00,
2013-01-01 06:37:00,42.3,40.5,-100.00,NNW,340,5.0,11.0,93,0.00,,,0.00,meteohub,2013-01-01 12:37:00,
2013-01-01 06:39:00,42.3,40.5,-100.00,NNW,342,7.0,11.0,93,0.00,,,0.00,meteohub,2013-01-01 12:39:00,
2013-01-01 06:41:00,42.1,40.3,-100.00,North,355,9.0,11.0,93,0.00,,,0.00,meteohub,2013-01-01 12:41:00,
2013-01-01 06:42:00,42.1,40.3,-100.00,North,355,7.0,11.0,93,0.00,,,0.00,meteohub,2013-01-01 12:42:00,
2013-01-01 06:44:00,42.1,40.3,-100.00,North,351,6.0,11.0,93,0.00,,,0.00,meteohub,2013-01-01 12:44:00,
2013-01-01 06:45:00,41.9,40.1,-100.00,North,350,8.0,12.0,93,0.00,,,0.00,meteohub,2013-01-01 12:45:00,
2013-01-01 06:46:00,41.9,40.1,-100.00,North,350,7.0,12.0,93,0.00,,,0.00,meteohub,2013-01-01 12:46:00,
2013-01-01 06:47:00,41.9,40.1,-100.00,North,350,6.0,12.0,93,0.00,,,0.00,meteohub,2013-01-01 12:47:00,
2013-01-01 06:49:00,41.9,40.1,-100.00,NNW,342,7.0,12.0,93,0.00,,,0.00,meteohub,2013-01-01 12:49:00,
2013-01-01 06:50:00,41.9,40.1,-100.00,NNW,343,11.0,12.0,93,0.00,,,0.00,meteohub,2013-01-01 12:50:00,
2013-01-01 06:53:00,41.7,39.6,-100.00,North,355,10.0,12.0,92,0.00,,,0.00,meteohub,2013-01-01 12:53:00,
2013-01-01 06:54:00,41.7,39.6,-100.00,North,355,7.0,12.0,92,0.00,,,0.00,meteohub,2013-01-01 12:54:00,
2013-01-01 06:55:00,41.7,39.6,-100.00,North,355,5.0,14.0,92,0.00,,,0.00,meteohub,2013-01-01 12:55:00,
2013-01-01 06:58:00,41.5,39.4,-100.00,North,355,10.0,14.0,92,0.00,,,0.00,meteohub,2013-01-01 12:58:00,
2013-01-01 07:00:00,41.5,39.4,-100.00,North,9,7.0,14.0,92,0.00,,,0.00,meteohub,2013-01-01 13:00:00,
2013-01-01 07:03:00,41.5,39.4,-100.00,North,355,6.0,14.0,92,0.00,,,0.00,meteohub,2013-01-01 13:03:00,
2013-01-01 07:04:00,41.5,39.4,-100.00,North,355,3.0,14.0,92,0.00,,,0.00,meteohub,2013-01-01 13:04:00,
2013-01-01 07:05:00,41.5,39.4,-100.00,North,355,6.0,14.0,92,0.00,,,0.00,meteohub,2013-01-01 13:05:00,
2013-01-01 07:06:00,41.5,39.4,-100.00,North,355,6.0,14.0,92,0.00,,,0.00,meteohub,2013-01-01 13:06:00,
2013-01-01 07:09:00,41.5,39.4,-100.00,North,355,6.0,14.0,92,0.00,,,0.00,meteohub,2013-01-01 13:09:00,
2013-01-01 07:10:00,41.5,39.4,-100.00,North,355,7.0,14.0,92,0.00,,,0.00,meteohub,2013-01-01 13:10:00,
2013-01-01 07:11:00,41.5,39.4,-100.00,North,355,11.0,12.0,92,0.00,,,0.00,meteohub,2013-01-01 13:11:00,
2013-01-01 07:14:00,41.5,39.4,-100.00,North,0,5.0,12.0,92,0.00,,,0.00,meteohub,2013-01-01 13:14:00,
2013-01-01 07:15:00,41.5,39.4,-100.00,North,0,9.0,12.0,92,0.00,,,0.00,meteohub,2013-01-01 13:15:00,
2013-01-01 07:17:00,41.5,39.4,-100.00,North,5,7.0,11.0,92,0.00,,,0.00,meteohub,2013-01-01 13:17:00,
2013-01-01 07:19:00,41.5,39.4,-100.00,North,355,8.0,11.0,92,0.00,,,0.00,meteohub,2013-01-01 13:19:00,
2013-01-01 07:20:00,41.5,39.4,-100.00,North,0,11.0,11.0,92,0.00,,,0.00,meteohub,2013-01-01 13:20:00,
2013-01-01 07:22:00,41.5,39.4,-100.00,North,355,7.0,13.0,92,0.00,,,0.00,meteohub,2013-01-01 13:22:00,
2013-01-01 07:24:00,41.5,39.4,-100.00,North,0,4.0,13.0,92,0.00,,,0.00,meteohub,2013-01-01 13:24:00,
2013-01-01 07:25:00,41.5,39.4,-100.00,North,0,5.0,13.0,92,0.00,,,0.00,meteohub,2013-01-01 13:25:00,
2013-01-01 07:27:00,41.5,39.4,-100.00,North,0,4.0,13.0,92,0.00,,,0.00,meteohub,2013-01-01 13:27:00,
2013-01-01 07:30:00,41.5,39.2,-100.00,North,0,5.0,13.0,91,0.00,,,0.00,meteohub,2013-01-01 13:30:00,
2013-01-01 07:32:00,41.4,39.0,-100.00,North,0,4.0,13.0,91,0.00,,,0.00,meteohub,2013-01-01 13:32:00,
2013-01-01 07:35:00,41.5,39.2,-100.00,North,355,4.0,13.0,91,0.00,,,0.00,meteohub,2013-01-01 13:35:00,
2013-01-01 07:36:00,41.5,39.2,-100.00,North,355,6.0,10.0,91,0.00,,,0.00,meteohub,2013-01-01 13:36:00,
2013-01-01 07:37:00,41.5,39.2,-100.00,North,355,5.0,10.0,91,0.00,,,0.00,meteohub,2013-01-01 13:37:00,
2013-01-01 07:40:00,41.5,39.2,-100.00,North,355,6.0,10.0,91,0.00,,,0.00,meteohub,2013-01-01 13:40:00,
2013-01-01 07:41:00,41.5,39.2,-100.00,North,355,5.0,9.0,91,0.00,,,0.00,meteohub,2013-01-01 13:41:00,
2013-01-01 07:42:00,41.4,39.0,-100.00,North,355,4.0,9.0,91,0.00,,,0.00,meteohub,2013-01-01 13:42:00,
2013-01-01 07:45:00,41.4,39.0,-100.00,North,355,3.0,9.0,91,0.00,,,0.00,meteohub,2013-01-01 13:45:00,
2013-01-01 07:46:00,41.4,39.0,-100.00,North,355,3.0,9.0,91,0.00,,,0.00,meteohub,2013-01-01 13:46:00,
2013-01-01 07:48:00,41.4,39.0,-100.00,North,355,4.0,9.0,91,0.00,,,0.00,meteohub,2013-01-01 13:48:00,
2013-01-01 07:51:00,41.4,39.0,-100.00,North,355,3.0,8.0,91,0.00,,,0.00,meteohub,2013-01-01 13:51:00,
2013-01-01 07:54:00,41.5,39.2,-100.00,North,355,4.0,8.0,91,0.00,,,0.00,meteohub,2013-01-01 13:54:00,
2013-01-01 07:56:00,41.5,39.2,-100.00,North,355,5.0,8.0,91,0.00,,,0.00,meteohub,2013-01-01 13:56:00,
2013-01-01 07:57:00,41.5,39.2,-100.00,North,355,6.0,8.0,91,0.00,,,0.00,meteohub,2013-01-01 13:57:00,
2013-01-01 07:59:00,41.5,39.2,-100.00,North,355,4.0,8.0,91,0.00,,,0.00,meteohub,2013-01-01 13:59:00,
2013-01-01 08:01:00,41.5,39.2,-100.00,North,351,6.0,9.0,91,0.00,,,0.00,meteohub,2013-01-01 14:01:00,
2013-01-01 08:02:00,41.5,39.2,-100.00,North,349,6.0,9.0,91,0.00,,,0.00,meteohub,2013-01-01 14:02:00,
2013-01-01 08:04:00,41.5,39.2,-100.00,NNW,347,6.0,9.0,91,0.00,,,0.00,meteohub,2013-01-01 14:04:00,
2013-01-01 08:06:00,41.5,39.2,-100.00,NNW,344,8.0,10.0,91,0.00,,,0.00,meteohub,2013-01-01 14:06:00,
2013-01-01 08:07:00,41.5,39.2,-100.00,NNW,342,7.0,10.0,91,0.00,,,0.00,meteohub,2013-01-01 14:07:00,
2013-01-01 08:10:00,41.5,39.2,-100.00,NNW,343,5.0,10.0,91,0.00,,,0.00,meteohub,2013-01-01 14:10:00,
2013-01-01 08:11:00,41.5,39.2,-100.00,NNW,343,7.0,10.0,91,0.00,,,0.00,meteohub,2013-01-01 14:11:00,
2013-01-01 08:12:00,41.5,39.2,-100.00,NNW,344,6.0,10.0,91,0.00,,,0.00,meteohub,2013-01-01 14:12:00,
2013-01-01 08:15:00,41.5,38.8,-100.00,NNW,344,2.0,10.0,90,0.00,,,0.00,meteohub,2013-01-01 14:15:00,
2013-01-01 08:16:00,41.5,39.2,-100.00,NNW,344,5.0,10.0,91,0.00,,,0.00,meteohub,2013-01-01 14:16:00,
2013-01-01 08:17:00,41.5,39.2,-100.00,NNW,344,4.0,10.0,91,0.00,,,0.00,meteohub,2013-01-01 14:17:00,
2013-01-01 08:20:00,41.5,38.8,-100.00,NNW,348,9.0,10.0,90,0.00,,,0.00,meteohub,2013-01-01 14:20:00,
2013-01-01 08:21:00,41.5,38.8,-100.00,NNW,348,7.0,10.0,90,0.00,,,0.00,meteohub,2013-01-01 14:21:00,
2013-01-01 08:22:00,41.5,38.8,-100.00,NNW,348,5.0,10.0,90,0.00,,,0.00,meteohub,2013-01-01 14:22:00,
2013-01-01 08:26:00,41.5,38.8,-100.00,NNW,344,3.0,10.0,90,0.00,,,0.00,meteohub,2013-01-01 14:26:00,
2013-01-01 08:27:00,41.5,38.8,-100.00,NNW,344,5.0,10.0,90,0.00,,,0.00,meteohub,2013-01-01 14:27:00,
2013-01-01 08:31:00,41.5,38.8,-100.00,NNW,346,9.0,10.0,90,0.00,,,0.00,meteohub,2013-01-01 14:31:00,
2013-01-01 08:32:00,41.5,38.8,-100.00,NNW,346,7.0,10.0,90,0.00,,,0.00,meteohub,2013-01-01 14:32:00,
2013-01-01 08:33:00,41.5,38.8,-100.00,North,351,9.0,10.0,90,0.00,,,0.00,meteohub,2013-01-01 14:33:00,
2013-01-01 08:36:00,41.5,38.8,-100.00,North,355,5.0,11.0,90,0.00,,,0.00,meteohub,2013-01-01 14:36:00,
2013-01-01 08:37:00,41.5,38.8,-100.00,North,355,11.0,11.0,90,0.00,,,0.00,meteohub,2013-01-01 14:37:00,
2013-01-01 08:38:00,41.5,38.8,-100.00,North,355,5.0,11.0,90,0.00,,,0.00,meteohub,2013-01-01 14:38:00,
2013-01-01 08:41:00,41.5,38.8,-100.00,North,351,9.0,11.0,90,0.00,,,0.00,meteohub,2013-01-01 14:41:00,
2013-01-01 08:42:00,41.5,38.8,-100.00,North,350,9.0,11.0,90,0.00,,,0.00,meteohub,2013-01-01 14:42:00,
2013-01-01 08:43:00,41.5,38.8,-100.00,North,349,10.0,11.0,90,0.00,,,0.00,meteohub,2013-01-01 14:43:00,
2013-01-01 08:46:00,41.5,38.8,-100.00,North,351,6.0,12.0,90,0.00,,,0.00,meteohub,2013-01-01 14:46:00,
2013-01-01 08:48:00,41.5,38.8,-100.00,North,350,7.0,12.0,90,0.00,,,0.00,meteohub,2013-01-01 14:48:00,
2013-01-01 08:51:00,41.5,38.8,-100.00,North,351,10.0,12.0,90,0.00,,,0.00,meteohub,2013-01-01 14:51:00,
2013-01-01 08:53:00,41.5,38.8,-100.00,North,350,9.0,12.0,90,0.00,,,0.00,meteohub,2013-01-01 14:53:00,
2013-01-01 08:54:00,41.5,38.8,-100.00,NNW,340,11.0,12.0,90,0.00,,,0.00,meteohub,2013-01-01 14:54:00,
2013-01-01 08:57:00,41.5,38.8,-100.00,NNW,336,6.0,13.0,90,0.00,,,0.00,meteohub,2013-01-01 14:57:00,
2013-01-01 08:58:00,41.5,38.8,-100.00,NNW,338,7.0,13.0,90,0.00,,,0.00,meteohub,2013-01-01 14:58:00,
2013-01-01 09:00:00,41.5,38.8,-100.00,NNW,331,10.0,13.0,90,0.00,,,0.00,meteohub,2013-01-01 15:00:00,
2013-01-01 09:02:00,41.5,38.8,-100.00,NNW,336,11.0,14.0,90,0.00,,,0.00,meteohub,2013-01-01 15:02:00,
2013-01-01 09:03:00,41.5,38.8,-100.00,NNW,342,7.0,14.0,90,0.00,,,0.00,meteohub,2013-01-01 15:03:00,
2013-01-01 09:05:00,41.5,38.8,-100.00,NNW,332,10.0,14.0,90,0.00,,,0.00,meteohub,2013-01-01 15:05:00,
2013-01-01 09:07:00,41.5,38.8,-100.00,NNW,333,8.0,14.0,90,0.00,,,0.00,meteohub,2013-01-01 15:07:00,
2013-01-01 09:08:00,41.5,38.8,-100.00,NNW,333,8.0,14.0,90,0.00,,,0.00,meteohub,2013-01-01 15:08:00,
2013-01-01 09:11:00,41.5,38.8,-100.00,NNW,334,12.0,16.0,90,0.00,,,0.00,meteohub,2013-01-01 15:11:00,
2013-01-01 09:12:00,41.5,38.8,-100.00,NNW,331,8.0,16.0,90,0.00,,,0.00,meteohub,2013-01-01 15:12:00,
2013-01-01 09:13:00,41.5,38.5,-100.00,NNW,329,9.0,16.0,89,0.00,,,0.00,meteohub,2013-01-01 15:13:00,
2013-01-01 09:14:00,41.5,38.5,-100.00,NNW,329,9.0,16.0,89,0.00,,,0.00,meteohub,2013-01-01 15:14:00,
2013-01-01 09:16:00,41.5,38.5,-100.00,NNW,345,15.0,16.0,89,0.00,,,0.00,meteohub,2013-01-01 15:16:00,
2013-01-01 09:17:00,41.4,38.3,-100.00,NNW,333,11.0,16.0,89,0.00,,,0.00,meteohub,2013-01-01 15:17:00,
2013-01-01 09:19:00,41.4,38.3,-100.00,NNW,331,11.0,16.0,89,0.00,,,0.00,meteohub,2013-01-01 15:19:00,
2013-01-01 09:21:00,41.4,38.3,-100.00,NNW,333,8.0,13.0,89,0.00,,,0.00,meteohub,2013-01-01 15:21:00,
2013-01-01 09:22:00,41.4,38.3,-100.00,NNW,331,11.0,13.0,89,0.00,,,0.00,meteohub,2013-01-01 15:22:00,
2013-01-01 09:24:00,41.4,38.3,-100.00,NNW,331,5.0,13.0,89,0.00,,,0.00,meteohub,2013-01-01 15:24:00,
2013-01-01 09:26:00,41.4,38.3,-100.00,NW,323,12.0,16.0,89,0.00,,,0.00,meteohub,2013-01-01 15:26:00,
2013-01-01 09:28:00,41.2,38.1,-100.00,NNW,334,10.0,16.0,89,0.00,,,0.00,meteohub,2013-01-01 15:28:00,
2013-01-01 09:29:00,41.2,38.1,-100.00,NNW,333,11.0,16.0,89,0.00,,,0.00,meteohub,2013-01-01 15:29:00,
2013-01-01 09:31:00,41.2,38.1,-100.00,NNW,332,10.0,16.0,89,0.00,,,0.00,meteohub,2013-01-01 15:31:00,
2013-01-01 09:33:00,41.2,38.1,-100.00,NW,320,12.0,16.0,89,0.00,,,0.00,meteohub,2013-01-01 15:33:00,
2013-01-01 09:35:00,41.2,38.1,-100.00,NNW,329,9.0,16.0,89,0.00,,,0.00,meteohub,2013-01-01 15:35:00,
2013-01-01 09:36:00,41.2,38.1,-100.00,NNW,329,8.0,16.0,89,0.00,,,0.00,meteohub,2013-01-01 15:36:00,
2013-01-01 09:37:00,41.4,38.3,-100.00,NNW,329,6.0,16.0,89,0.00,,,0.00,meteohub,2013-01-01 15:37:00,
2013-01-01 09:39:00,41.4,38.3,-100.00,NNW,338,12.0,16.0,89,0.00,,,0.00,meteohub,2013-01-01 15:39:00,
2013-01-01 09:40:00,41.4,38.3,-100.00,NNW,342,12.0,16.0,89,0.00,,,0.00,meteohub,2013-01-01 15:40:00,
2013-01-01 09:41:00,41.4,38.3,-100.00,NNW,337,11.0,16.0,89,0.00,,,0.00,meteohub,2013-01-01 15:41:00,
2013-01-01 09:42:00,41.5,38.5,-100.00,NNW,339,9.0,16.0,89,0.00,,,0.00,meteohub,2013-01-01 15:42:00,
2013-01-01 09:44:00,41.5,38.5,-100.00,NNW,342,8.0,16.0,89,0.00,,,0.00,meteohub,2013-01-01 15:44:00,
2013-01-01 09:45:00,41.4,38.3,-100.00,NNW,336,12.0,17.0,89,0.00,,,0.00,meteohub,2013-01-01 15:45:00,
2013-01-01 09:46:00,41.4,38.3,-100.00,NNW,336,10.0,17.0,89,0.00,,,0.00,meteohub,2013-01-01 15:46:00,
2013-01-01 09:47:00,41.4,38.3,-100.00,NNW,330,12.0,17.0,89,0.00,,,0.00,meteohub,2013-01-01 15:47:00,
2013-01-01 09:49:00,41.4,38.1,-100.00,NNW,328,13.0,17.0,88,0.00,,,0.00,meteohub,2013-01-01 15:49:00,
2013-01-01 09:51:00,41.2,37.9,-100.00,NNW,346,11.0,18.0,88,0.00,,,0.00,meteohub,2013-01-01 15:51:00,
2013-01-01 09:52:00,41.2,37.9,-100.00,NNW,332,4.0,18.0,88,0.00,,,0.00,meteohub,2013-01-01 15:52:00,
2013-01-01 09:54:00,41.2,37.9,-100.00,NNW,345,14.0,18.0,88,0.00,,,0.00,meteohub,2013-01-01 15:54:00,
2013-01-01 09:56:00,41.2,37.9,-100.00,NNW,331,12.0,18.0,88,0.00,,,0.00,meteohub,2013-01-01 15:56:00,
2013-01-01 09:57:00,41.2,37.9,-100.00,NNW,342,14.0,18.0,88,0.00,,,0.00,meteohub,2013-01-01 15:57:00,
2013-01-01 10:00:00,41.2,37.9,-100.00,NNW,331,10.0,18.0,88,0.00,,,0.00,meteohub,2013-01-01 16:00:00,
2013-01-01 10:01:00,41.2,37.6,-100.00,NNW,347,13.0,18.0,87,0.00,,,0.00,meteohub,2013-01-01 16:01:00,
2013-01-01 10:02:00,41.2,37.9,-100.00,North,355,15.0,18.0,88,0.00,,,0.00,meteohub,2013-01-01 16:02:00,
2013-01-01 10:05:00,41.2,37.9,-100.00,NNW,327,12.0,18.0,88,0.00,,,0.00,meteohub,2013-01-01 16:05:00,
2013-01-01 10:06:00,41.2,37.9,-100.00,NNW,327,12.0,18.0,88,0.00,,,0.00,meteohub,2013-01-01 16:06:00,
2013-01-01 10:07:00,41.2,37.6,-100.00,NNW,340,11.0,18.0,87,0.00,,,0.00,meteohub,2013-01-01 16:07:00,
2013-01-01 10:08:00,41.2,37.6,-100.00,NNW,342,12.0,18.0,87,0.00,,,0.00,meteohub,2013-01-01 16:08:00,
2013-01-01 10:10:00,41.2,37.6,-100.00,NNW,340,14.0,18.0,87,0.00,,,0.00,meteohub,2013-01-01 16:10:00,
2013-01-01 10:12:00,41.2,37.6,-100.00,NNW,347,12.0,18.0,87,0.00,,,0.00,meteohub,2013-01-01 16:12:00,
2013-01-01 10:13:00,41.2,37.6,-100.00,North,355,12.0,18.0,87,0.00,,,0.00,meteohub,2013-01-01 16:13:00,
2013-01-01 10:15:00,41.2,37.6,-100.00,NNW,334,7.0,18.0,87,0.00,,,0.00,meteohub,2013-01-01 16:15:00,
2013-01-01 10:18:00,41.2,37.6,-100.00,NNW,331,7.0,17.0,87,0.00,,,0.00,meteohub,2013-01-01 16:18:00,
2013-01-01 10:19:00,41.2,37.6,-100.00,NNW,346,10.0,17.0,87,0.00,,,0.00,meteohub,2013-01-01 16:19:00,
2013-01-01 10:20:00,41.2,37.6,-100.00,NNW,344,12.0,18.0,87,0.00,,,0.00,meteohub,2013-01-01 16:20:00,
2013-01-01 10:23:00,41.2,37.6,-100.00,NNW,344,12.0,18.0,87,0.00,,,0.00,meteohub,2013-01-01 16:23:00,
2013-01-01 10:24:00,41.2,37.6,-100.00,NW,321,13.0,18.0,87,0.00,,,0.00,meteohub,2013-01-01 16:24:00,
2013-01-01 10:25:00,41.2,37.6,-100.00,NNW,328,11.0,18.0,87,0.00,,,0.00,meteohub,2013-01-01 16:25:00,
2013-01-01 10:28:00,41.2,37.6,-100.00,NNW,338,12.0,18.0,87,0.00,,,0.00,meteohub,2013-01-01 16:28:00,
2013-01-01 10:29:00,41.2,37.6,-100.00,NNW,341,11.0,18.0,87,0.00,,,0.00,meteohub,2013-01-01 16:29:00,
2013-01-01 10:30:00,41.2,37.6,-100.00,NNW,344,8.0,18.0,87,0.00,,,0.00,meteohub,2013-01-01 16:30:00,
2013-01-01 10:33:00,41.2,37.6,-100.00,NW,325,7.0,18.0,87,0.00,,,0.00,meteohub,2013-01-01 16:33:00,
2013-01-01 10:34:00,41.2,37.6,-100.00,NNW,340,9.0,18.0,87,0.00,,,0.00,meteohub,2013-01-01 16:34:00,
2013-01-01 10:35:00,41.2,37.6,-100.00,NW,325,17.0,18.0,87,0.00,,,0.00,meteohub,2013-01-01 16:35:00,
2013-01-01 10:39:00,41.2,37.6,-100.00,NNW,339,9.0,18.0,87,0.00,,,0.00,meteohub,2013-01-01 16:39:00,
2013-01-01 10:40:00,41.2,37.6,-100.00,NNW,348,8.0,21.0,87,0.00,,,0.00,meteohub,2013-01-01 16:40:00,
2013-01-01 10:41:00,41.2,37.6,-100.00,North,349,6.0,21.0,87,0.00,,,0.00,meteohub,2013-01-01 16:41:00,
2013-01-01 10:44:00,41.2,37.6,-100.00,NNW,336,9.0,21.0,87,0.00,,,0.00,meteohub,2013-01-01 16:44:00,
2013-01-01 10:45:00,41.2,37.6,-100.00,NNW,346,11.0,21.0,87,0.00,,,0.00,meteohub,2013-01-01 16:45:00,
2013-01-01 10:46:00,41.2,37.6,-100.00,NNW,338,12.0,21.0,87,0.00,,,0.00,meteohub,2013-01-01 16:46:00,
2013-01-01 10:49:00,41.2,37.6,-100.00,NNW,343,12.0,21.0,87,0.00,,,0.00,meteohub,2013-01-01 16:49:00,
2013-01-01 10:50:00,41.2,37.6,-100.00,North,355,6.0,21.0,87,0.00,,,0.00,meteohub,2013-01-01 16:50:00,
2013-01-01 10:51:00,41.2,37.6,-100.00,North,355,7.0,17.0,87,0.00,,,0.00,meteohub,2013-01-01 16:51:00,
2013-01-01 10:54:00,41.2,37.6,-100.00,NNW,333,11.0,17.0,87,0.00,,,0.00,meteohub,2013-01-01 16:54:00,
2013-01-01 10:55:00,41.2,37.6,-100.00,NNW,328,10.0,15.0,87,0.00,,,0.00,meteohub,2013-01-01 16:55:00,
2013-01-01 10:56:00,41.2,37.6,-100.00,NNW,327,10.0,15.0,87,0.00,,,0.00,meteohub,2013-01-01 16:56:00,
2013-01-01 10:57:00,41.2,37.6,-100.00,NNW,347,11.0,15.0,87,0.00,,,0.00,meteohub,2013-01-01 16:57:00,
2013-01-01 11:00:00,41.2,37.6,-100.00,North,350,5.0,15.0,87,0.00,,,0.00,meteohub,2013-01-01 17:00:00,
2013-01-01 11:01:00,41.2,37.6,-100.00,NNW,340,8.0,15.0,87,0.00,,,0.00,meteohub,2013-01-01 17:01:00,
2013-01-01 11:02:00,41.4,37.8,-100.00,NNW,339,16.0,16.0,87,0.00,,,0.00,meteohub,2013-01-01 17:02:00,
2013-01-01 11:05:00,41.2,37.4,-100.00,NW,326,13.0,15.0,86,0.00,,,0.00,meteohub,2013-01-01 17:05:00,
2013-01-01 11:06:00,41.2,37.4,-100.00,NNW,342,18.0,18.0,86,0.00,,,0.00,meteohub,2013-01-01 17:06:00,
2013-01-01 11:07:00,41.2,37.4,-100.00,NW,316,9.0,18.0,86,0.00,,,0.00,meteohub,2013-01-01 17:07:00,
2013-01-01 11:10:00,40.8,37.0,-100.00,NNW,348,11.0,18.0,86,0.00,,,0.00,meteohub,2013-01-01 17:10:00,
2013-01-01 11:11:00,41.2,37.4,-100.00,NNW,338,12.0,18.0,86,0.00,,,0.00,meteohub,2013-01-01 17:11:00,
2013-01-01 11:12:00,41.2,37.4,-100.00,NNW,344,13.0,18.0,86,0.00,,,0.00,meteohub,2013-01-01 17:12:00,
2013-01-01 11:13:00,41.2,37.4,-100.00,North,355,14.0,18.0,86,0.00,,,0.00,meteohub,2013-01-01 17:13:00,
2013-01-01 11:15:00,41.2,37.4,-100.00,NNW,348,11.0,18.0,86,0.00,,,0.00,meteohub,2013-01-01 17:15:00,
2013-01-01 11:16:00,41.2,37.4,-100.00,NNW,340,11.0,18.0,86,0.00,,,0.00,meteohub,2013-01-01 17:16:00,
2013-01-01 11:17:00,41.2,37.4,-100.00,NNW,338,12.0,18.0,86,0.00,,,0.00,meteohub,2013-01-01 17:17:00,
2013-01-01 11:18:00,41.2,37.4,-100.00,NNW,328,12.0,18.0,86,0.00,,,0.00,meteohub,2013-01-01 17:18:00,
2013-01-01 11:20:00,41.2,37.4,-100.00,NNW,344,12.0,18.0,86,0.00,,,0.00,meteohub,2013-01-01 17:20:00,
2013-01-01 11:22:00,41.2,37.4,-100.00,North,355,11.0,18.0,86,0.00,,,0.00,meteohub,2013-01-01 17:22:00,
2013-01-01 11:23:00,41.2,37.0,-100.00,NNW,346,13.0,18.0,85,0.00,,,0.00,meteohub,2013-01-01 17:23:00,
2013-01-01 11:25:00,41.2,37.0,-100.00,NNW,341,6.0,18.0,85,0.00,,,0.00,meteohub,2013-01-01 17:25:00,
2013-01-01 11:27:00,41.2,37.4,-100.00,NNW,346,10.0,18.0,86,0.00,,,0.00,meteohub,2013-01-01 17:27:00,
2013-01-01 11:28:00,41.4,37.6,-100.00,NNW,340,14.0,18.0,86,0.00,,,0.00,meteohub,2013-01-01 17:28:00,
2013-01-01 11:29:00,41.2,37.0,-100.00,NNW,332,18.0,18.0,85,0.00,,,0.00,meteohub,2013-01-01 17:29:00,
2013-01-01 11:30:00,41.2,37.0,-100.00,NNW,333,14.0,19.0,85,0.00,,,0.00,meteohub,2013-01-01 17:30:00,
2013-01-01 11:33:00,41.2,37.0,-100.00,NNW,336,12.0,19.0,85,0.00,,,0.00,meteohub,2013-01-01 17:33:00,
2013-01-01 11:34:00,41.2,37.0,-100.00,NNW,338,10.0,19.0,85,0.00,,,0.00,meteohub,2013-01-01 17:34:00,
2013-01-01 11:36:00,41.2,37.0,-100.00,NNW,347,11.0,22.0,85,0.00,,,0.00,meteohub,2013-01-01 17:36:00,
2013-01-01 11:38:00,41.4,37.2,-100.00,NNW,346,10.0,22.0,85,0.00,,,0.00,meteohub,2013-01-01 17:38:00,
2013-01-01 11:39:00,41.4,37.2,-100.00,NNW,339,10.0,22.0,85,0.00,,,0.00,meteohub,2013-01-01 17:39:00,
2013-01-01 11:41:00,41.4,37.2,-100.00,North,0,6.0,22.0,85,0.00,,,0.00,meteohub,2013-01-01 17:41:00,
2013-01-01 11:42:00,41.4,37.2,-100.00,NNW,343,12.0,22.0,85,0.00,,,0.00,meteohub,2013-01-01 17:42:00,
2013-01-01 11:44:00,41.4,37.2,-100.00,North,350,9.0,22.0,85,0.00,,,0.00,meteohub,2013-01-01 17:44:00,
2013-01-01 11:46:00,41.5,37.4,-100.00,NNW,333,9.0,17.0,85,0.00,,,0.00,meteohub,2013-01-01 17:46:00,
2013-01-01 11:49:00,41.5,37.4,-100.00,NW,324,9.0,17.0,85,0.00,,,0.00,meteohub,2013-01-01 17:49:00,
2013-01-01 11:51:00,41.4,37.2,-100.00,NNW,327,12.0,17.0,85,0.00,,,0.00,meteohub,2013-01-01 17:51:00,
2013-01-01 11:54:00,41.2,37.0,-100.00,NNW,332,16.0,17.0,85,0.00,,,0.00,meteohub,2013-01-01 17:54:00,
2013-01-01 11:55:00,41.2,37.0,-100.00,NNW,331,14.0,17.0,85,0.00,,,0.00,meteohub,2013-01-01 17:55:00,
2013-01-01 11:57:00,41.2,37.0,-100.00,NNW,327,14.0,17.0,85,0.00,,,0.00,meteohub,2013-01-01 17:57:00,
2013-01-01 11:59:00,40.8,36.7,-100.00,NW,320,9.0,17.0,85,0.00,,,0.00,meteohub,2013-01-01 17:59:00,
2013-01-01 12:00:00,40.8,36.7,-100.00,NW,321,16.0,17.0,85,0.00,,,0.00,meteohub,2013-01-01 18:00:00,
2013-01-01 12:02:00,40.8,36.7,-100.00,NNW,330,10.0,19.0,85,0.00,,,0.00,meteohub,2013-01-01 18:02:00,
2013-01-01 12:05:00,40.8,36.7,-100.00,NNW,329,10.0,19.0,85,0.00,,,0.00,meteohub,2013-01-01 18:05:00,
2013-01-01 12:07:00,40.8,36.7,-100.00,NNW,333,8.0,19.0,85,0.00,,,0.00,meteohub,2013-01-01 18:07:00,
2013-01-01 12:10:00,40.8,36.7,-100.00,WNW,297,14.0,19.0,85,0.00,,,0.00,meteohub,2013-01-01 18:10:00,
2013-01-01 12:12:00,40.8,36.7,-100.00,NNW,347,13.0,19.0,85,0.00,,,0.00,meteohub,2013-01-01 18:12:00,
2013-01-01 12:15:00,41.2,37.0,-100.00,NW,321,13.0,19.0,85,0.00,,,0.00,meteohub,2013-01-01 18:15:00,
2013-01-01 12:16:00,41.2,37.0,-100.00,NW,321,8.0,18.0,85,0.00,,,0.00,meteohub,2013-01-01 18:16:00,
2013-01-01 12:17:00,41.2,37.0,-100.00,NW,326,12.0,18.0,85,0.00,,,0.00,meteohub,2013-01-01 18:17:00,
2013-01-01 12:20:00,41.2,37.0,-100.00,NNW,339,6.0,18.0,85,0.00,,,0.00,meteohub,2013-01-01 18:20:00,
2013-01-01 12:21:00,41.2,37.0,-100.00,NNW,336,6.0,16.0,85,0.00,,,0.00,meteohub,2013-01-01 18:21:00,
2013-01-01 12:23:00,41.2,37.0,-100.00,NNW,333,13.0,16.0,85,0.00,,,0.00,meteohub,2013-01-01 18:23:00,
2013-01-01 12:25:00,41.2,36.7,-100.00,NNW,338,11.0,15.0,84,0.00,,,0.00,meteohub,2013-01-01 18:25:00,
2013-01-01 12:26:00,41.2,36.7,-100.00,NNW,346,7.0,15.0,84,0.00,,,0.00,meteohub,2013-01-01 18:26:00,
2013-01-01 12:28:00,41.2,36.7,-100.00,NNW,331,15.0,15.0,84,0.00,,,0.00,meteohub,2013-01-01 18:28:00,
2013-01-01 12:30:00,41.2,36.7,-100.00,NNW,329,10.0,17.0,84,0.00,,,0.00,meteohub,2013-01-01 18:30:00,
2013-01-01 12:31:00,41.2,36.7,-100.00,NNW,331,11.0,17.0,84,0.00,,,0.00,meteohub,2013-01-01 18:31:00,
2013-01-01 12:33:00,41.4,36.9,-100.00,NNW,338,7.0,17.0,84,0.00,,,0.00,meteohub,2013-01-01 18:33:00,
2013-01-01 12:36:00,41.5,37.0,-100.00,NNW,339,10.0,17.0,84,0.00,,,0.00,meteohub,2013-01-01 18:36:00,
2013-01-01 12:37:00,41.5,37.0,-100.00,NNW,341,15.0,17.0,84,0.00,,,0.00,meteohub,2013-01-01 18:37:00,
2013-01-01 12:39:00,41.5,37.0,-100.00,NW,324,5.0,17.0,84,0.00,,,0.00,meteohub,2013-01-01 18:39:00,
2013-01-01 12:41:00,41.5,36.7,-100.00,NW,323,10.0,16.0,83,0.00,,,0.00,meteohub,2013-01-01 18:41:00,
2013-01-01 12:42:00,41.5,36.7,-100.00,NNW,340,18.0,18.0,83,0.00,,,0.00,meteohub,2013-01-01 18:42:00,
2013-01-01 12:44:00,41.5,36.7,-100.00,NNW,341,9.0,16.0,83,0.00,,,0.00,meteohub,2013-01-01 18:44:00,
2013-01-01 12:46:00,41.5,36.7,-100.00,North,349,8.0,18.0,83,0.00,,,0.00,meteohub,2013-01-01 18:46:00,
2013-01-01 12:47:00,41.5,36.7,-100.00,NNW,343,11.0,18.0,83,0.00,,,0.00,meteohub,2013-01-01 18:47:00,
2013-01-01 12:48:00,41.5,37.0,-100.00,NNW,342,7.0,18.0,84,0.00,,,0.00,meteohub,2013-01-01 18:48:00,
2013-01-01 12:49:00,41.7,36.9,-100.00,North,0,8.0,18.0,83,0.00,,,0.00,meteohub,2013-01-01 18:49:00,
2013-01-01 12:51:00,41.7,37.2,-100.00,NNW,347,12.0,18.0,84,0.00,,,0.00,meteohub,2013-01-01 18:51:00,
2013-01-01 12:52:00,41.7,36.9,-100.00,NNW,339,7.0,18.0,83,0.00,,,0.00,meteohub,2013-01-01 18:52:00,
2013-01-01 12:53:00,41.7,36.9,-100.00,NNW,346,11.0,18.0,83,0.00,,,0.00,meteohub,2013-01-01 18:53:00,
2013-01-01 12:55:00,41.7,36.9,-100.00,NNW,332,10.0,18.0,83,0.00,,,0.00,meteohub,2013-01-01 18:55:00,
2013-01-01 12:56:00,41.7,36.9,-100.00,NNW,343,10.0,18.0,83,0.00,,,0.00,meteohub,2013-01-01 18:56:00,
2013-01-01 12:57:00,41.7,36.7,-100.00,NNW,341,6.0,18.0,82,0.00,,,0.00,meteohub,2013-01-01 18:57:00,
2013-01-01 12:58:00,41.7,36.9,-100.00,NW,325,13.0,18.0,83,0.00,,,0.00,meteohub,2013-01-01 18:58:00,
2013-01-01 13:00:00,41.5,36.5,-100.00,NNW,338,10.0,17.0,82,0.00,,,0.00,meteohub,2013-01-01 19:00:00,
2013-01-01 13:01:00,41.5,36.5,-100.00,NNW,331,12.0,17.0,82,0.00,,,0.00,meteohub,2013-01-01 19:01:00,
2013-01-01 13:02:00,41.5,36.5,-100.00,NNW,337,9.0,17.0,82,0.00,,,0.00,meteohub,2013-01-01 19:02:00,
2013-01-01 13:04:00,41.5,36.5,-100.00,NNW,338,9.0,17.0,82,0.00,,,0.00,meteohub,2013-01-01 19:04:00,
2013-01-01 13:05:00,41.5,36.5,-100.00,NNW,328,11.0,17.0,82,0.00,,,0.00,meteohub,2013-01-01 19:05:00,
2013-01-01 13:06:00,41.5,36.7,-100.00,NNW,343,11.0,17.0,83,0.00,,,0.00,meteohub,2013-01-01 19:06:00,
2013-01-01 13:07:00,41.5,36.7,-100.00,NNW,331,11.0,17.0,83,0.00,,,0.00,meteohub,2013-01-01 19:07:00,
2013-01-01 13:09:00,41.5,36.5,-100.00,NNW,346,12.0,17.0,82,0.00,,,0.00,meteohub,2013-01-01 19:09:00,
2013-01-01 13:11:00,41.4,36.3,-100.00,NNW,329,11.0,17.0,82,0.00,,,0.00,meteohub,2013-01-01 19:11:00,
2013-01-01 13:12:00,41.4,36.3,-100.00,NNW,342,10.0,17.0,82,0.00,,,0.00,meteohub,2013-01-01 19:12:00,
2013-01-01 13:15:00,41.4,36.0,-100.00,NNW,331,10.0,17.0,81,0.00,,,0.00,meteohub,2013-01-01 19:15:00,
2013-01-01 13:16:00,41.4,36.3,-100.00,North,355,12.0,18.0,82,0.00,,,0.00,meteohub,2013-01-01 19:16:00,
2013-01-01 13:17:00,41.4,36.3,-100.00,North,349,9.0,18.0,82,0.00,,,0.00,meteohub,2013-01-01 19:17:00,
2013-01-01 13:18:00,41.5,36.5,-100.00,North,350,7.0,18.0,82,0.00,,,0.00,meteohub,2013-01-01 19:18:00,
2013-01-01 13:20:00,41.5,36.5,-100.00,NNW,341,11.0,18.0,82,0.00,,,0.00,meteohub,2013-01-01 19:20:00,
2013-01-01 13:21:00,41.5,36.5,-100.00,North,5,9.0,18.0,82,0.00,,,0.00,meteohub,2013-01-01 19:21:00,
2013-01-01 13:23:00,41.5,36.5,-100.00,NNW,347,13.0,18.0,82,0.00,,,0.00,meteohub,2013-01-01 19:23:00,
2013-01-01 13:25:00,41.5,36.5,-100.00,North,355,13.0,18.0,82,0.00,,,0.00,meteohub,2013-01-01 19:25:00,
2013-01-01 13:27:00,41.5,36.5,-100.00,NNW,328,11.0,18.0,82,0.00,,,0.00,meteohub,2013-01-01 19:27:00,
2013-01-01 13:28:00,41.5,36.5,-100.00,NNW,329,9.0,18.0,82,0.00,,,0.00,meteohub,2013-01-01 19:28:00,
2013-01-01 13:30:00,41.7,36.7,-100.00,North,355,6.0,18.0,82,0.00,,,0.00,meteohub,2013-01-01 19:30:00,
2013-01-01 13:32:00,41.7,36.7,-100.00,North,0,13.0,17.0,82,0.00,,,0.00,meteohub,2013-01-01 19:32:00,
2013-01-01 13:33:00,41.7,36.7,-100.00,North,0,5.0,17.0,82,0.00,,,0.00,meteohub,2013-01-01 19:33:00,
2013-01-01 13:35:00,41.7,36.7,-100.00,NNE,12,13.0,16.0,82,0.00,,,0.00,meteohub,2013-01-01 19:35:00,
2013-01-01 13:37:00,41.7,36.3,-100.00,North,0,13.0,16.0,81,0.00,,,0.00,meteohub,2013-01-01 19:37:00,
2013-01-01 13:38:00,41.7,36.3,-100.00,North,355,10.0,16.0,81,0.00,,,0.00,meteohub,2013-01-01 19:38:00,
2013-01-01 13:39:00,41.5,36.1,-100.00,NNW,336,11.0,16.0,81,0.00,,,0.00,meteohub,2013-01-01 19:39:00,
2013-01-01 13:40:00,41.5,36.1,-100.00,North,0,10.0,18.0,81,0.00,,,0.00,meteohub,2013-01-01 19:40:00,
2013-01-01 13:42:00,41.5,36.1,-100.00,NNW,342,12.0,18.0,81,0.00,,,0.00,meteohub,2013-01-01 19:42:00,
2013-01-01 13:43:00,41.5,36.1,-100.00,North,355,9.0,18.0,81,0.00,,,0.00,meteohub,2013-01-01 19:43:00,
2013-01-01 13:44:00,41.5,36.1,-100.00,North,350,9.0,18.0,81,0.00,,,0.00,meteohub,2013-01-01 19:44:00,
2013-01-01 13:46:00,41.5,36.1,-100.00,North,355,9.0,18.0,81,0.00,,,0.00,meteohub,2013-01-01 19:46:00,
2013-01-01 13:47:00,41.5,36.1,-100.00,NNW,346,10.0,18.0,81,0.00,,,0.00,meteohub,2013-01-01 19:47:00,
2013-01-01 13:49:00,41.5,36.1,-100.00,NNW,341,13.0,18.0,81,0.00,,,0.00,meteohub,2013-01-01 19:49:00,
2013-01-01 13:51:00,41.5,36.1,-100.00,North,0,12.0,18.0,81,0.00,,,0.00,meteohub,2013-01-01 19:51:00,
2013-01-01 13:53:00,41.4,36.0,-100.00,NNW,340,15.0,18.0,81,0.00,,,0.00,meteohub,2013-01-01 19:53:00,
2013-01-01 13:54:00,41.4,36.0,-100.00,North,355,11.0,18.0,81,0.00,,,0.00,meteohub,2013-01-01 19:54:00,
2013-01-01 13:56:00,41.4,36.0,-100.00,North,350,7.0,17.0,81,0.00,,,0.00,meteohub,2013-01-01 19:56:00,
2013-01-01 13:58:00,41.2,35.8,-100.00,NNW,338,10.0,17.0,81,0.00,,,0.00,meteohub,2013-01-01 19:58:00,
2013-01-01 13:59:00,41.2,36.1,-100.00,NNW,331,6.0,17.0,82,0.00,,,0.00,meteohub,2013-01-01 19:59:00,
2013-01-01 14:02:00,41.2,35.8,-100.00,NNW,337,15.0,16.0,81,0.00,,,0.00,meteohub,2013-01-01 20:02:00,
2013-01-01 14:03:00,41.2,35.8,-100.00,NW,326,14.0,16.0,81,0.00,,,0.00,meteohub,2013-01-01 20:03:00,
2013-01-01 14:04:00,41.2,35.8,-100.00,NNW,342,10.0,16.0,81,0.00,,,0.00,meteohub,2013-01-01 20:04:00,
2013-01-01 14:05:00,40.8,35.8,-100.00,NW,311,14.0,19.0,82,0.00,,,0.00,meteohub,2013-01-01 20:05:00,
2013-01-01 14:07:00,40.8,35.8,-100.00,NW,320,15.0,19.0,82,0.00,,,0.00,meteohub,2013-01-01 20:07:00,
2013-01-01 14:08:00,40.8,35.8,-100.00,North,5,12.0,19.0,82,0.00,,,0.00,meteohub,2013-01-01 20:08:00,
2013-01-01 14:09:00,40.8,35.8,-100.00,NNW,336,16.0,19.0,82,0.00,,,0.00,meteohub,2013-01-01 20:09:00,
2013-01-01 14:10:00,40.8,35.8,-100.00,NNW,333,9.0,19.0,82,0.00,,,0.00,meteohub,2013-01-01 20:10:00,
2013-01-01 14:12:00,40.8,35.8,-100.00,NNW,327,14.0,19.0,82,0.00,,,0.00,meteohub,2013-01-01 20:12:00,
2013-01-01 14:14:00,40.8,35.4,-100.00,NNW,346,16.0,19.0,81,0.00,,,0.00,meteohub,2013-01-01 20:14:00,
2013-01-01 14:15:00,40.6,35.2,-100.00,North,355,12.0,20.0,81,0.00,,,0.00,meteohub,2013-01-01 20:15:00,
2013-01-01 14:16:00,40.6,35.2,-100.00,NNW,339,9.0,20.0,81,0.00,,,0.00,meteohub,2013-01-01 20:16:00,
2013-01-01 14:17:00,40.6,35.2,-100.00,NNW,342,10.0,20.0,81,0.00,,,0.00,meteohub,2013-01-01 20:17:00,
2013-01-01 14:19:00,40.8,35.4,-100.00,NNW,338,12.0,20.0,81,0.00,,,0.00,meteohub,2013-01-01 20:19:00,
2013-01-01 14:20:00,40.8,35.4,-100.00,NNW,331,5.0,20.0,81,0.00,,,0.00,meteohub,2013-01-01 20:20:00,
2013-01-01 14:21:00,40.8,35.4,-100.00,NNW,333,17.0,20.0,81,0.00,,,0.00,meteohub,2013-01-01 20:21:00,
2013-01-01 14:23:00,40.8,35.4,-100.00,NNW,342,11.0,20.0,81,0.00,,,0.00,meteohub,2013-01-01 20:23:00,
2013-01-01 14:24:00,40.8,35.4,-100.00,NNW,345,7.0,20.0,81,0.00,,,0.00,meteohub,2013-01-01 20:24:00,
2013-01-01 14:25:00,40.8,35.4,-100.00,NNW,329,14.0,20.0,81,0.00,,,0.00,meteohub,2013-01-01 20:25:00,
2013-01-01 14:26:00,40.8,35.4,-100.00,NNW,343,10.0,20.0,81,0.00,,,0.00,meteohub,2013-01-01 20:26:00,
2013-01-01 14:28:00,40.8,35.4,-100.00,North,355,14.0,20.0,81,0.00,,,0.00,meteohub,2013-01-01 20:28:00,
2013-01-01 14:30:00,40.8,35.4,-100.00,North,355,10.0,20.0,81,0.00,,,0.00,meteohub,2013-01-01 20:30:00,
2013-01-01 14:32:00,40.6,35.2,-100.00,North,355,10.0,18.0,81,0.00,,,0.00,meteohub,2013-01-01 20:32:00,
2013-01-01 14:34:00,40.6,35.6,-100.00,North,355,13.0,18.0,82,0.00,,,0.00,meteohub,2013-01-01 20:34:00,
2013-01-01 14:35:00,40.6,35.2,-100.00,North,355,12.0,18.0,81,0.00,,,0.00,meteohub,2013-01-01 20:35:00,
2013-01-01 14:36:00,40.5,35.1,-100.00,North,355,12.0,18.0,81,0.00,,,0.00,meteohub,2013-01-01 20:36:00,
2013-01-01 14:37:00,40.5,35.1,-100.00,North,355,12.0,18.0,81,0.00,,,0.00,meteohub,2013-01-01 20:37:00,
2013-01-01 14:39:00,40.5,35.4,-100.00,North,9,13.0,18.0,82,0.00,,,0.00,meteohub,2013-01-01 20:39:00,
2013-01-01 14:40:00,40.3,35.2,-100.00,North,351,11.0,18.0,82,0.00,,,0.00,meteohub,2013-01-01 20:40:00,
2013-01-01 14:41:00,40.3,35.2,-100.00,NNW,345,14.0,18.0,82,0.00,,,0.00,meteohub,2013-01-01 20:41:00,
2013-01-01 14:42:00,40.3,35.2,-100.00,North,5,11.0,18.0,82,0.00,,,0.00,meteohub,2013-01-01 20:42:00,
2013-01-01 14:44:00,40.3,35.2,-100.00,NNW,343,11.0,18.0,82,0.00,,,0.00,meteohub,2013-01-01 20:44:00,
2013-01-01 14:45:00,40.3,35.2,-100.00,NNW,348,13.0,18.0,82,0.00,,,0.00,meteohub,2013-01-01 20:45:00,
2013-01-01 14:46:00,40.3,35.2,-100.00,NNW,344,6.0,17.0,82,0.00,,,0.00,meteohub,2013-01-01 20:46:00,
2013-01-01 14:47:00,40.3,35.2,-100.00,NNW,344,9.0,17.0,82,0.00,,,0.00,meteohub,2013-01-01 20:47:00,
2013-01-01 14:49:00,40.3,35.2,-100.00,NNW,341,7.0,17.0,82,0.00,,,0.00,meteohub,2013-01-01 20:49:00,
2013-01-01 14:50:00,40.3,35.2,-100.00,NNW,341,4.0,17.0,82,0.00,,,0.00,meteohub,2013-01-01 20:50:00,
2013-01-01 14:51:00,40.5,35.8,-100.00,NNW,342,6.0,16.0,83,0.00,,,0.00,meteohub,2013-01-01 20:51:00,
2013-01-01 14:52:00,40.5,35.1,-100.00,NNW,347,12.0,16.0,81,0.00,,,0.00,meteohub,2013-01-01 20:52:00,
2013-01-01 14:54:00,40.5,35.4,-100.00,North,9,6.0,16.0,82,0.00,,,0.00,meteohub,2013-01-01 20:54:00,
2013-01-01 14:55:00,40.5,35.4,-100.00,North,9,5.0,16.0,82,0.00,,,0.00,meteohub,2013-01-01 20:55:00,
2013-01-01 14:56:00,40.5,35.4,-100.00,North,5,10.0,15.0,82,0.00,,,0.00,meteohub,2013-01-01 20:56:00,
2013-01-01 14:57:00,40.6,35.6,-100.00,North,349,8.0,15.0,82,0.00,,,0.00,meteohub,2013-01-01 20:57:00,
2013-01-01 14:59:00,40.6,35.6,-100.00,NNW,346,5.0,15.0,82,0.00,,,0.00,meteohub,2013-01-01 20:59:00,
2013-01-01 15:00:00,40.6,35.6,-100.00,NNW,346,5.0,15.0,82,0.00,,,0.00,meteohub,2013-01-01 21:00:00,
2013-01-01 15:01:00,40.6,35.6,-100.00,NNW,343,8.0,14.0,82,0.00,,,0.00,meteohub,2013-01-01 21:01:00,
2013-01-01 15:03:00,40.6,35.6,-100.00,North,355,9.0,14.0,82,0.00,,,0.00,meteohub,2013-01-01 21:03:00,
2013-01-01 15:05:00,40.6,35.6,-100.00,NNW,340,10.0,14.0,82,0.00,,,0.00,meteohub,2013-01-01 21:05:00,
2013-01-01 15:06:00,40.6,35.6,-100.00,NNW,342,4.0,14.0,82,0.00,,,0.00,meteohub,2013-01-01 21:06:00,
2013-01-01 15:08:00,40.6,35.6,-100.00,NNW,340,11.0,14.0,82,0.00,,,0.00,meteohub,2013-01-01 21:08:00,
2013-01-01 15:10:00,40.6,35.6,-100.00,North,350,11.0,14.0,82,0.00,,,0.00,meteohub,2013-01-01 21:10:00,
2013-01-01 15:12:00,40.6,35.6,-100.00,North,355,9.0,14.0,82,0.00,,,0.00,meteohub,2013-01-01 21:12:00,
2013-01-01 15:13:00,40.6,35.6,-100.00,North,351,7.0,14.0,82,0.00,,,0.00,meteohub,2013-01-01 21:13:00,
2013-01-01 15:15:00,40.6,35.6,-100.00,NNW,346,12.0,14.0,82,0.00,,,0.00,meteohub,2013-01-01 21:15:00,
2013-01-01 15:17:00,40.6,35.6,-100.00,North,355,12.0,14.0,82,0.00,,,0.00,meteohub,2013-01-01 21:17:00,
2013-01-01 15:18:00,40.6,35.6,-100.00,North,355,11.0,14.0,82,0.00,,,0.00,meteohub,2013-01-01 21:18:00,
2013-01-01 15:20:00,40.8,35.8,-100.00,North,355,12.0,14.0,82,0.00,,,0.00,meteohub,2013-01-01 21:20:00,
2013-01-01 15:21:00,40.8,35.8,-100.00,North,0,12.0,14.0,82,0.00,,,0.00,meteohub,2013-01-01 21:21:00,
2013-01-01 15:22:00,40.8,35.8,-100.00,NNW,333,12.0,14.0,82,0.00,,,0.00,meteohub,2013-01-01 21:22:00,
2013-01-01 15:23:00,40.8,35.8,-100.00,NNW,342,10.0,14.0,82,0.00,,,0.00,meteohub,2013-01-01 21:23:00,
2013-01-01 15:25:00,40.8,35.8,-100.00,NNW,342,6.0,14.0,82,0.00,,,0.00,meteohub,2013-01-01 21:25:00,
2013-01-01 15:26:00,40.8,35.8,-100.00,NNW,342,12.0,14.0,82,0.00,,,0.00,meteohub,2013-01-01 21:26:00,
2013-01-01 15:27:00,40.8,35.8,-100.00,NNW,336,6.0,14.0,82,0.00,,,0.00,meteohub,2013-01-01 21:27:00,
2013-01-01 15:28:00,40.8,35.4,-100.00,NNW,336,5.0,14.0,81,0.00,,,0.00,meteohub,2013-01-01 21:28:00,
2013-01-01 15:31:00,41.2,35.8,-100.00,NNW,339,10.0,14.0,81,0.00,,,0.00,meteohub,2013-01-01 21:31:00,
2013-01-01 15:33:00,41.2,35.8,-100.00,North,355,5.0,14.0,81,0.00,,,0.00,meteohub,2013-01-01 21:33:00,
2013-01-01 15:36:00,40.8,35.4,-100.00,NNW,341,9.0,13.0,81,0.00,,,0.00,meteohub,2013-01-01 21:36:00,
2013-01-01 15:38:00,40.8,35.1,-100.00,NNW,344,9.0,13.0,80,0.00,,,0.00,meteohub,2013-01-01 21:38:00,
2013-01-01 15:39:00,40.8,35.1,-100.00,North,355,10.0,13.0,80,0.00,,,0.00,meteohub,2013-01-01 21:39:00,
2013-01-01 15:41:00,40.8,35.1,-100.00,North,350,12.0,15.0,80,0.00,,,0.00,meteohub,2013-01-01 21:41:00,
2013-01-01 15:43:00,40.8,35.1,-100.00,NNW,346,9.0,15.0,80,0.00,,,0.00,meteohub,2013-01-01 21:43:00,
2013-01-01 15:44:00,40.8,35.4,-100.00,North,355,17.0,17.0,81,0.00,,,0.00,meteohub,2013-01-01 21:44:00,
2013-01-01 15:46:00,40.8,35.1,-100.00,NNW,347,11.0,17.0,80,0.00,,,0.00,meteohub,2013-01-01 21:46:00,
2013-01-01 15:48:00,40.8,35.1,-100.00,NNW,333,12.0,17.0,80,0.00,,,0.00,meteohub,2013-01-01 21:48:00,
2013-01-01 15:49:00,41.2,35.4,-100.00,North,10,9.0,17.0,80,0.00,,,0.00,meteohub,2013-01-01 21:49:00,
2013-01-01 15:51:00,40.8,34.9,-100.00,NNW,343,12.0,17.0,79,0.00,,,0.00,meteohub,2013-01-01 21:51:00,
2013-01-01 15:52:00,40.8,34.9,-100.00,North,350,9.0,17.0,79,0.00,,,0.00,meteohub,2013-01-01 21:52:00,
2013-01-01 15:53:00,40.8,34.9,-100.00,North,355,11.0,17.0,79,0.00,,,0.00,meteohub,2013-01-01 21:53:00,
2013-01-01 15:55:00,40.8,34.9,-100.00,North,351,7.0,17.0,79,0.00,,,0.00,meteohub,2013-01-01 21:55:00,
2013-01-01 15:56:00,40.8,34.9,-100.00,NNW,348,6.0,17.0,79,0.00,,,0.00,meteohub,2013-01-01 21:56:00,
2013-01-01 15:57:00,40.8,34.9,-100.00,NNW,347,10.0,17.0,79,0.00,,,0.00,meteohub,2013-01-01 21:57:00,
2013-01-01 15:59:00,40.8,34.9,-100.00,North,350,8.0,17.0,79,0.00,,,0.00,meteohub,2013-01-01 21:59:00,
2013-01-01 16:01:00,40.8,34.9,-100.00,NNW,348,12.0,16.0,79,0.00,,,0.00,meteohub,2013-01-01 22:01:00,
2013-01-01 16:02:00,40.8,34.9,-100.00,NNW,346,10.0,16.0,79,0.00,,,0.00,meteohub,2013-01-01 22:02:00,
2013-01-01 16:03:00,40.8,34.9,-100.00,NNW,346,7.0,16.0,79,0.00,,,0.00,meteohub,2013-01-01 22:03:00,
2013-01-01 16:04:00,40.8,34.9,-100.00,NNW,344,9.0,16.0,79,0.00,,,0.00,meteohub,2013-01-01 22:04:00,
2013-01-01 16:06:00,40.8,35.1,-100.00,NNW,345,10.0,16.0,80,0.00,,,0.00,meteohub,2013-01-01 22:06:00,
2013-01-01 16:07:00,40.8,35.1,-100.00,North,9,10.0,16.0,80,0.00,,,0.00,meteohub,2013-01-01 22:07:00,
2013-01-01 16:08:00,40.8,35.1,-100.00,North,355,6.0,16.0,80,0.00,,,0.00,meteohub,2013-01-01 22:08:00,
2013-01-01 16:09:00,40.8,35.1,-100.00,NNW,348,12.0,16.0,80,0.00,,,0.00,meteohub,2013-01-01 22:09:00,
2013-01-01 16:11:00,40.8,35.1,-100.00,NNW,346,5.0,16.0,80,0.00,,,0.00,meteohub,2013-01-01 22:11:00,
2013-01-01 16:12:00,40.8,35.1,-100.00,NNW,346,5.0,16.0,80,0.00,,,0.00,meteohub,2013-01-01 22:12:00,
2013-01-01 16:13:00,40.8,35.1,-100.00,North,349,10.0,16.0,80,0.00,,,0.00,meteohub,2013-01-01 22:13:00,
2013-01-01 16:15:00,40.6,34.9,-100.00,NNW,338,7.0,16.0,80,0.00,,,0.00,meteohub,2013-01-01 22:15:00,
2013-01-01 16:17:00,40.6,34.9,-100.00,NW,321,7.0,13.0,80,0.00,,,0.00,meteohub,2013-01-01 22:17:00,
2013-01-01 16:18:00,40.6,34.9,-100.00,NNW,335,9.0,13.0,80,0.00,,,0.00,meteohub,2013-01-01 22:18:00,
2013-01-01 16:20:00,40.5,34.7,-100.00,NNW,339,7.0,13.0,80,0.00,,,0.00,meteohub,2013-01-01 22:20:00,
2013-01-01 16:22:00,40.5,34.7,-100.00,NNW,342,10.0,14.0,80,0.00,,,0.00,meteohub,2013-01-01 22:22:00,
2013-01-01 16:23:00,40.5,34.7,-100.00,NNW,327,13.0,14.0,80,0.00,,,0.00,meteohub,2013-01-01 22:23:00,
2013-01-01 16:25:00,40.3,35.6,-100.00,NNW,340,9.0,14.0,83,0.00,,,0.00,meteohub,2013-01-01 22:25:00,
2013-01-01 16:27:00,40.3,34.5,-100.00,NNW,346,13.0,14.0,80,0.00,,,0.00,meteohub,2013-01-01 22:27:00,
2013-01-01 16:28:00,40.3,34.5,-100.00,North,355,9.0,14.0,80,0.00,,,0.00,meteohub,2013-01-01 22:28:00,
2013-01-01 16:30:00,40.3,34.5,-100.00,NNW,344,11.0,15.0,80,0.00,,,0.00,meteohub,2013-01-01 22:30:00,
2013-01-01 16:33:00,40.3,34.3,-100.00,NNW,344,10.0,15.0,79,0.00,,,0.00,meteohub,2013-01-01 22:33:00,
2013-01-01 16:34:00,40.3,34.3,-100.00,NNW,340,7.0,15.0,79,0.00,,,0.00,meteohub,2013-01-01 22:34:00,
2013-01-01 16:35:00,40.3,34.3,-100.00,NNW,346,7.0,17.0,79,0.00,,,0.00,meteohub,2013-01-01 22:35:00,
2013-01-01 16:38:00,40.3,34.3,-100.00,NNW,348,4.0,17.0,79,0.00,,,0.00,meteohub,2013-01-01 22:38:00,
2013-01-01 16:39:00,40.3,34.5,-100.00,North,355,12.0,17.0,80,0.00,,,0.00,meteohub,2013-01-01 22:39:00,
2013-01-01 16:41:00,40.3,34.5,-100.00,NNW,342,11.0,17.0,80,0.00,,,0.00,meteohub,2013-01-01 22:41:00,
2013-01-01 16:43:00,40.1,34.2,-100.00,NNW,342,6.0,17.0,79,0.00,,,0.00,meteohub,2013-01-01 22:43:00,
2013-01-01 16:44:00,40.1,34.5,-100.00,NNW,344,8.0,17.0,80,0.00,,,0.00,meteohub,2013-01-01 22:44:00,
2013-01-01 16:46:00,40.1,34.2,-100.00,NNW,339,11.0,17.0,79,0.00,,,0.00,meteohub,2013-01-01 22:46:00,
2013-01-01 16:48:00,40.1,34.2,-100.00,NNW,338,6.0,17.0,79,0.00,,,0.00,meteohub,2013-01-01 22:48:00,
2013-01-01 16:49:00,40.1,34.2,-100.00,NNW,340,5.0,17.0,79,0.00,,,0.00,meteohub,2013-01-01 22:49:00,
2013-01-01 16:51:00,39.9,34.0,-100.00,North,0,10.0,15.0,79,0.00,,,0.00,meteohub,2013-01-01 22:51:00,
2013-01-01 16:53:00,39.9,34.0,-100.00,North,355,7.0,15.0,79,0.00,,,0.00,meteohub,2013-01-01 22:53:00,
2013-01-01 16:55:00,39.9,34.0,-100.00,North,350,6.0,15.0,79,0.00,,,0.00,meteohub,2013-01-01 22:55:00,
2013-01-01 16:56:00,39.9,34.3,-100.00,North,351,4.0,15.0,80,0.00,,,0.00,meteohub,2013-01-01 22:56:00,
2013-01-01 16:58:00,39.7,34.2,-100.00,NNW,347,8.0,15.0,80,0.00,,,0.00,meteohub,2013-01-01 22:58:00,
2013-01-01 16:59:00,39.7,34.2,-100.00,NNW,347,7.0,15.0,80,0.00,,,0.00,meteohub,2013-01-01 22:59:00,
2013-01-01 17:00:00,39.7,34.2,-100.00,NNW,347,3.0,15.0,80,0.00,,,0.00,meteohub,2013-01-01 23:00:00,
2013-01-01 17:01:00,39.7,34.2,-100.00,NNW,347,6.0,15.0,80,0.00,,,0.00,meteohub,2013-01-01 23:01:00,
2013-01-01 17:04:00,39.7,34.2,-100.00,NNW,347,6.0,15.0,80,0.00,,,0.00,meteohub,2013-01-01 23:04:00,
2013-01-01 17:05:00,39.7,34.2,-100.00,NNW,347,5.0,15.0,80,0.00,,,0.00,meteohub,2013-01-01 23:05:00,
2013-01-01 17:07:00,39.7,34.2,-100.00,NNW,347,6.0,15.0,80,0.00,,,0.00,meteohub,2013-01-01 23:07:00,
2013-01-01 17:09:00,39.7,34.2,-100.00,NNW,346,9.0,15.0,80,0.00,,,0.00,meteohub,2013-01-01 23:09:00,
2013-01-01 17:10:00,39.7,34.2,-100.00,NNW,342,12.0,15.0,80,0.00,,,0.00,meteohub,2013-01-01 23:10:00,
2013-01-01 17:12:00,39.6,34.0,-100.00,NNW,342,7.0,15.0,80,0.00,,,0.00,meteohub,2013-01-01 23:12:00,
2013-01-01 17:14:00,39.6,34.0,-100.00,North,355,8.0,15.0,80,0.00,,,0.00,meteohub,2013-01-01 23:14:00,
2013-01-01 17:15:00,39.6,34.0,-100.00,NNW,346,12.0,15.0,80,0.00,,,0.00,meteohub,2013-01-01 23:15:00,
2013-01-01 17:16:00,39.6,34.0,-100.00,North,0,11.0,13.0,80,0.00,,,0.00,meteohub,2013-01-01 23:16:00,
2013-01-01 17:17:00,39.6,34.0,-100.00,North,0,10.0,13.0,80,0.00,,,0.00,meteohub,2013-01-01 23:17:00,
2013-01-01 17:19:00,39.6,34.0,-100.00,NNW,344,7.0,13.0,80,0.00,,,0.00,meteohub,2013-01-01 23:19:00,
2013-01-01 17:21:00,39.6,34.0,-100.00,NNW,341,7.0,14.0,80,0.00,,,0.00,meteohub,2013-01-01 23:21:00,
2013-01-01 17:23:00,39.6,34.0,-100.00,North,350,9.0,14.0,80,0.00,,,0.00,meteohub,2013-01-01 23:23:00,
2013-01-01 17:25:00,39.6,34.2,-100.00,NNW,343,10.0,14.0,81,0.00,,,0.00,meteohub,2013-01-01 23:25:00,
2013-01-01 17:26:00,39.6,34.2,-100.00,NNW,340,9.0,14.0,81,0.00,,,0.00,meteohub,2013-01-01 23:26:00,
2013-01-01 17:27:00,39.6,34.0,-100.00,NNW,348,9.0,14.0,80,0.00,,,0.00,meteohub,2013-01-01 23:27:00,
2013-01-01 17:29:00,39.4,33.8,-100.00,NNW,344,10.0,14.0,80,0.00,,,0.00,meteohub,2013-01-01 23:29:00,
2013-01-01 17:30:00,39.4,33.8,-100.00,NNW,344,10.0,16.0,80,0.00,,,0.00,meteohub,2013-01-01 23:30:00,
2013-01-01 17:31:00,39.4,33.8,-100.00,North,350,10.0,16.0,80,0.00,,,0.00,meteohub,2013-01-01 23:31:00,
2013-01-01 17:32:00,39.4,33.8,-100.00,North,350,9.0,16.0,80,0.00,,,0.00,meteohub,2013-01-01 23:32:00,
2013-01-01 17:34:00,39.4,33.8,-100.00,NNW,334,14.0,16.0,80,0.00,,,0.00,meteohub,2013-01-01 23:34:00,
2013-01-01 17:35:00,39.4,33.8,-100.00,NNW,345,8.0,16.0,80,0.00,,,0.00,meteohub,2013-01-01 23:35:00,
2013-01-01 17:37:00,39.2,33.6,-100.00,North,351,10.0,16.0,80,0.00,,,0.00,meteohub,2013-01-01 23:37:00,
2013-01-01 17:40:00,39.2,33.6,-100.00,North,355,7.0,16.0,80,0.00,,,0.00,meteohub,2013-01-01 23:40:00,
2013-01-01 17:41:00,39.2,33.6,-100.00,NNW,340,7.0,16.0,80,0.00,,,0.00,meteohub,2013-01-01 23:41:00,
2013-01-01 17:42:00,39.2,33.6,-100.00,NNW,346,7.0,16.0,80,0.00,,,0.00,meteohub,2013-01-01 23:42:00,
2013-01-01 17:45:00,39.0,33.4,-100.00,NNW,344,11.0,16.0,80,0.00,,,0.00,meteohub,2013-01-01 23:45:00,
2013-01-01 17:46:00,39.0,33.4,-100.00,North,355,13.0,15.0,80,0.00,,,0.00,meteohub,2013-01-01 23:46:00,
2013-01-01 17:47:00,39.0,33.4,-100.00,NNW,341,9.0,15.0,80,0.00,,,0.00,meteohub,2013-01-01 23:47:00,
2013-01-01 17:48:00,39.0,33.4,-100.00,NNW,335,9.0,15.0,80,0.00,,,0.00,meteohub,2013-01-01 23:48:00,
2013-01-01 17:50:00,38.8,33.3,-100.00,NNW,348,10.0,15.0,80,0.00,,,0.00,meteohub,2013-01-01 23:50:00,
2013-01-01 17:51:00,38.8,33.3,-100.00,NNW,348,10.0,16.0,80,0.00,,,0.00,meteohub,2013-01-01 23:51:00,
2013-01-01 17:52:00,38.8,33.3,-100.00,NNW,343,11.0,16.0,80,0.00,,,0.00,meteohub,2013-01-01 23:52:00,
2013-01-01 17:53:00,38.8,33.3,-100.00,North,355,9.0,16.0,80,0.00,,,0.00,meteohub,2013-01-01 23:53:00,
2013-01-01 17:56:00,38.8,33.3,-100.00,North,349,6.0,16.0,80,0.00,,,0.00,meteohub,2013-01-01 23:56:00,
2013-01-01 17:57:00,38.8,33.3,-100.00,NNW,335,12.0,16.0,80,0.00,,,0.00,meteohub,2013-01-01 23:57:00,
2013-01-01 17:58:00,38.8,33.3,-100.00,North,5,7.0,16.0,80,0.00,,,0.00,meteohub,2013-01-01 23:58:00,
2013-01-01 18:01:00,38.8,33.3,-100.00,North,350,10.0,16.0,80,0.00,,,0.00,meteohub,2013-01-02 00:01:00,
2013-01-01 18:02:00,38.8,33.3,-100.00,North,350,13.0,16.0,80,0.00,,,0.00,meteohub,2013-01-02 00:02:00,
2013-01-01 18:03:00,38.8,33.8,-100.00,NNW,346,9.0,16.0,82,0.00,,,0.00,meteohub,2013-01-02 00:03:00,
2013-01-01 18:07:00,38.8,33.3,-100.00,North,349,13.0,15.0,80,0.00,,,0.00,meteohub,2013-01-02 00:07:00,
2013-01-01 18:08:00,38.8,33.3,-100.00,NNW,342,12.0,15.0,80,0.00,,,0.00,meteohub,2013-01-02 00:08:00,
2013-01-01 18:12:00,38.7,33.1,-100.00,NNW,346,6.0,15.0,80,0.00,,,0.00,meteohub,2013-01-02 00:12:00,
2013-01-01 18:14:00,38.7,33.1,-100.00,NNW,344,6.0,15.0,80,0.00,,,0.00,meteohub,2013-01-02 00:14:00,
2013-01-01 18:17:00,38.7,33.1,-100.00,NNW,344,12.0,14.0,80,0.00,,,0.00,meteohub,2013-01-02 00:17:00,
2013-01-01 18:19:00,38.7,33.1,-100.00,NNW,345,10.0,14.0,80,0.00,,,0.00,meteohub,2013-01-02 00:19:00,
2013-01-01 18:22:00,38.5,32.9,-100.00,North,351,6.0,15.0,80,0.00,,,0.00,meteohub,2013-01-02 00:22:00,
2013-01-01 18:23:00,38.5,32.9,-100.00,NNW,342,11.0,15.0,80,0.00,,,0.00,meteohub,2013-01-02 00:23:00,
2013-01-01 18:24:00,38.5,32.9,-100.00,NNW,343,6.0,15.0,80,0.00,,,0.00,meteohub,2013-01-02 00:24:00,
2013-01-01 18:25:00,38.5,32.9,-100.00,NNW,344,10.0,15.0,80,0.00,,,0.00,meteohub,2013-01-02 00:25:00,
2013-01-01 18:28:00,38.5,32.9,-100.00,NNW,345,9.0,15.0,80,0.00,,,0.00,meteohub,2013-01-02 00:28:00,
2013-01-01 18:30:00,38.5,32.9,-100.00,NNW,344,7.0,15.0,80,0.00,,,0.00,meteohub,2013-01-02 00:30:00,
2013-01-01 18:33:00,38.5,32.9,-100.00,NNW,346,7.0,15.0,80,0.00,,,0.00,meteohub,2013-01-02 00:33:00,
2013-01-01 18:35:00,38.5,32.9,-100.00,NNW,346,5.0,15.0,80,0.00,,,0.00,meteohub,2013-01-02 00:35:00,
2013-01-01 18:38:00,38.3,32.7,-100.00,NNW,346,6.0,14.0,80,0.00,,,0.00,meteohub,2013-01-02 00:38:00,
2013-01-01 18:40:00,38.3,32.7,-100.00,NNW,346,10.0,14.0,80,0.00,,,0.00,meteohub,2013-01-02 00:40:00,
2013-01-01 18:41:00,38.3,32.7,-100.00,NNW,342,12.0,14.0,80,0.00,,,0.00,meteohub,2013-01-02 00:41:00,
2013-01-01 18:43:00,38.3,32.7,-100.00,NNW,347,13.0,14.0,80,0.00,,,0.00,meteohub,2013-01-02 00:43:00,
2013-01-01 18:45:00,38.1,32.2,-100.00,NNW,333,6.0,14.0,79,0.00,,,0.00,meteohub,2013-01-02 00:45:00,
2013-01-01 18:46:00,38.1,32.2,-100.00,NNW,347,11.0,15.0,79,0.00,,,0.00,meteohub,2013-01-02 00:46:00,
2013-01-01 18:48:00,38.1,32.2,-100.00,NNW,344,7.0,15.0,79,0.00,,,0.00,meteohub,2013-01-02 00:48:00,
2013-01-01 18:49:00,38.1,31.8,-100.00,NNW,345,9.0,15.0,78,0.00,,,0.00,meteohub,2013-01-02 00:49:00,
2013-01-01 18:50:00,38.1,32.2,-100.00,NNW,346,11.0,15.0,79,0.00,,,0.00,meteohub,2013-01-02 00:50:00,
2013-01-01 18:52:00,38.1,32.2,-100.00,NNW,335,6.0,15.0,79,0.00,,,0.00,meteohub,2013-01-02 00:52:00,
2013-01-01 18:54:00,38.1,32.2,-100.00,NNW,338,7.0,15.0,79,0.00,,,0.00,meteohub,2013-01-02 00:54:00,
2013-01-01 18:55:00,38.1,32.5,-100.00,North,0,11.0,15.0,80,0.00,,,0.00,meteohub,2013-01-02 00:55:00,
2013-01-01 18:57:00,37.9,32.0,-100.00,NNW,343,4.0,15.0,79,0.00,,,0.00,meteohub,2013-01-02 00:57:00,
2013-01-01 18:59:00,37.9,32.0,-100.00,North,355,7.0,15.0,79,0.00,,,0.00,meteohub,2013-01-02 00:59:00,
2013-01-01 19:00:00,37.9,32.0,-100.00,NNW,344,6.0,16.0,79,0.00,,,0.00,meteohub,2013-01-02 01:00:00,
2013-01-01 19:02:00,37.9,32.0,-100.00,North,350,11.0,16.0,79,0.00,,,0.00,meteohub,2013-01-02 01:02:00,
2013-01-01 19:04:00,37.9,32.0,-100.00,North,350,7.0,16.0,79,0.00,,,0.00,meteohub,2013-01-02 01:04:00,
2013-01-01 19:05:00,37.9,32.0,-100.00,North,350,4.0,16.0,79,0.00,,,0.00,meteohub,2013-01-02 01:05:00,
2013-01-01 19:07:00,37.9,32.0,-100.00,North,355,7.0,16.0,79,0.00,,,0.00,meteohub,2013-01-02 01:07:00,
2013-01-01 19:09:00,37.9,32.0,-100.00,NNW,346,7.0,16.0,79,0.00,,,0.00,meteohub,2013-01-02 01:09:00,
2013-01-01 19:10:00,37.9,32.0,-100.00,NNW,346,9.0,16.0,79,0.00,,,0.00,meteohub,2013-01-02 01:10:00,
2013-01-01 19:13:00,37.9,32.4,-100.00,NNW,341,8.0,15.0,80,0.00,,,0.00,meteohub,2013-01-02 01:13:00,
2013-01-01 19:15:00,37.9,32.0,-100.00,North,355,7.0,15.0,79,0.00,,,0.00,meteohub,2013-01-02 01:15:00,
2013-01-01 19:16:00,37.9,32.0,-100.00,North,355,7.0,15.0,79,0.00,,,0.00,meteohub,2013-01-02 01:16:00,
2013-01-01 19:18:00,37.9,32.0,-100.00,North,355,9.0,15.0,79,0.00,,,0.00,meteohub,2013-01-02 01:18:00,
2013-01-01 19:20:00,37.9,32.0,-100.00,NNW,340,6.0,15.0,79,0.00,,,0.00,meteohub,2013-01-02 01:20:00,
2013-01-01 19:21:00,37.9,32.0,-100.00,North,351,11.0,15.0,79,0.00,,,0.00,meteohub,2013-01-02 01:21:00,
2013-01-01 19:23:00,37.9,32.0,-100.00,North,349,6.0,15.0,79,0.00,,,0.00,meteohub,2013-01-02 01:23:00,
2013-01-01 19:25:00,37.8,31.8,-100.00,North,355,10.0,13.0,79,0.00,,,0.00,meteohub,2013-01-02 01:25:00,
2013-01-01 19:26:00,37.8,31.8,-100.00,North,355,6.0,13.0,79,0.00,,,0.00,meteohub,2013-01-02 01:26:00,
2013-01-01 19:28:00,37.8,31.8,-100.00,North,355,6.0,13.0,79,0.00,,,0.00,meteohub,2013-01-02 01:28:00,
2013-01-01 19:31:00,37.8,32.2,-100.00,NNW,346,10.0,13.0,80,0.00,,,0.00,meteohub,2013-01-02 01:31:00,
2013-01-01 19:32:00,37.8,32.2,-100.00,NNW,348,9.0,13.0,80,0.00,,,0.00,meteohub,2013-01-02 01:32:00,
2013-01-01 19:34:00,37.8,31.8,-100.00,North,350,8.0,13.0,79,0.00,,,0.00,meteohub,2013-01-02 01:34:00,
2013-01-01 19:36:00,37.8,32.2,-100.00,North,350,6.0,14.0,80,0.00,,,0.00,meteohub,2013-01-02 01:36:00,
2013-01-01 19:37:00,37.8,32.2,-100.00,North,0,7.0,14.0,80,0.00,,,0.00,meteohub,2013-01-02 01:37:00,
2013-01-01 19:39:00,37.8,32.2,-100.00,North,355,10.0,14.0,80,0.00,,,0.00,meteohub,2013-01-02 01:39:00,
2013-01-01 19:41:00,37.8,32.2,-100.00,NNW,348,9.0,14.0,80,0.00,,,0.00,meteohub,2013-01-02 01:41:00,
2013-01-01 19:42:00,37.8,32.2,-100.00,NNW,348,7.0,14.0,80,0.00,,,0.00,meteohub,2013-01-02 01:42:00,
2013-01-01 19:44:00,37.8,32.2,-100.00,NNW,347,7.0,14.0,80,0.00,,,0.00,meteohub,2013-01-02 01:44:00,
2013-01-01 19:47:00,37.8,32.2,-100.00,NNW,346,5.0,14.0,80,0.00,,,0.00,meteohub,2013-01-02 01:47:00,
2013-01-01 19:49:00,37.8,32.2,-100.00,NNW,346,6.0,14.0,80,0.00,,,0.00,meteohub,2013-01-02 01:49:00,
2013-01-01 19:52:00,37.8,32.2,-100.00,NNW,345,9.0,12.0,80,0.00,,,0.00,meteohub,2013-01-02 01:52:00,
2013-01-01 19:53:00,37.8,32.2,-100.00,NNW,344,9.0,12.0,80,0.00,,,0.00,meteohub,2013-01-02 01:53:00,
2013-01-01 19:54:00,37.6,32.0,-100.00,NNW,348,6.0,12.0,80,0.00,,,0.00,meteohub,2013-01-02 01:54:00,
2013-01-01 19:57:00,37.6,32.0,-100.00,North,349,6.0,11.0,80,0.00,,,0.00,meteohub,2013-01-02 01:57:00,
2013-01-01 19:58:00,37.6,32.0,-100.00,NNW,348,9.0,11.0,80,0.00,,,0.00,meteohub,2013-01-02 01:58:00,
2013-01-01 19:59:00,37.6,32.0,-100.00,NNW,346,9.0,11.0,80,0.00,,,0.00,meteohub,2013-01-02 01:59:00,
2013-01-01 20:03:00,37.6,32.0,-100.00,North,350,7.0,11.0,80,0.00,,,0.00,meteohub,2013-01-02 02:03:00,
2013-01-01 20:04:00,37.6,32.0,-100.00,NNW,344,10.0,11.0,80,0.00,,,0.00,meteohub,2013-01-02 02:04:00,
2013-01-01 20:08:00,37.6,32.0,-100.00,NNW,346,6.0,13.0,80,0.00,,,0.00,meteohub,2013-01-02 02:08:00,
2013-01-01 20:09:00,37.6,32.0,-100.00,NNW,346,5.0,13.0,80,0.00,,,0.00,meteohub,2013-01-02 02:09:00,
2013-01-01 20:13:00,37.6,32.0,-100.00,NNW,338,6.0,13.0,80,0.00,,,0.00,meteohub,2013-01-02 02:13:00,
2013-01-01 20:14:00,37.6,32.0,-100.00,NNW,338,5.0,13.0,80,0.00,,,0.00,meteohub,2013-01-02 02:14:00,
2013-01-01 20:15:00,37.6,32.0,-100.00,NNW,338,5.0,13.0,80,0.00,,,0.00,meteohub,2013-01-02 02:15:00,
2013-01-01 20:19:00,37.6,32.0,-100.00,NNW,340,5.0,13.0,80,0.00,,,0.00,meteohub,2013-01-02 02:19:00,
2013-01-01 20:20:00,37.6,32.0,-100.00,NNW,340,4.0,13.0,80,0.00,,,0.00,meteohub,2013-01-02 02:20:00,
2013-01-01 20:24:00,37.6,32.0,-100.00,NNW,340,6.0,10.0,80,0.00,,,0.00,meteohub,2013-01-02 02:24:00,
2013-01-01 20:25:00,37.6,32.0,-100.00,NNW,346,4.0,10.0,80,0.00,,,0.00,meteohub,2013-01-02 02:25:00,
2013-01-01 20:26:00,37.6,32.0,-100.00,NNW,347,7.0,10.0,80,0.00,,,0.00,meteohub,2013-01-02 02:26:00,
2013-01-01 20:29:00,37.6,32.0,-100.00,North,351,5.0,10.0,80,0.00,,,0.00,meteohub,2013-01-02 02:29:00,
2013-01-01 20:30:00,37.6,32.0,-100.00,North,351,5.0,12.0,80,0.00,,,0.00,meteohub,2013-01-02 02:30:00,
2013-01-01 20:31:00,37.6,32.0,-100.00,North,351,6.0,12.0,80,0.00,,,0.00,meteohub,2013-01-02 02:31:00,
2013-01-01 20:35:00,37.6,32.0,-100.00,North,350,5.0,12.0,80,0.00,,,0.00,meteohub,2013-01-02 02:35:00,
2013-01-01 20:36:00,37.6,32.0,-100.00,North,350,3.0,12.0,80,0.00,,,0.00,meteohub,2013-01-02 02:36:00,
2013-01-01 20:40:00,37.2,32.0,-100.00,North,350,3.0,12.0,81,0.00,,,0.00,meteohub,2013-01-02 02:40:00,
2013-01-01 20:41:00,37.2,32.0,-100.00,North,350,5.0,12.0,81,0.00,,,0.00,meteohub,2013-01-02 02:41:00,
2013-01-01 20:45:00,37.2,32.0,-100.00,NNW,348,6.0,8.0,81,0.00,,,0.00,meteohub,2013-01-02 02:45:00,
2013-01-01 20:46:00,37.2,32.0,-100.00,NNW,348,5.0,8.0,81,0.00,,,0.00,meteohub,2013-01-02 02:46:00,
2013-01-01 20:47:00,37.2,32.0,-100.00,NNW,348,6.0,8.0,81,0.00,,,0.00,meteohub,2013-01-02 02:47:00,
2013-01-01 20:50:00,37.2,31.6,-100.00,North,0,11.0,11.0,80,0.00,,,0.00,meteohub,2013-01-02 02:50:00,
2013-01-01 20:51:00,37.2,31.6,-100.00,North,355,10.0,10.0,80,0.00,,,0.00,meteohub,2013-01-02 02:51:00,
2013-01-01 20:52:00,37.2,31.6,-100.00,North,355,6.0,9.0,80,0.00,,,0.00,meteohub,2013-01-02 02:52:00,
2013-01-01 20:55:00,37.2,31.6,-100.00,North,350,3.0,12.0,80,0.00,,,0.00,meteohub,2013-01-02 02:55:00,
2013-01-01 20:56:00,37.2,31.6,-100.00,North,350,10.0,12.0,80,0.00,,,0.00,meteohub,2013-01-02 02:56:00,
2013-01-01 20:57:00,37.2,31.6,-100.00,North,350,7.0,12.0,80,0.00,,,0.00,meteohub,2013-01-02 02:57:00,
2013-01-01 21:01:00,37.2,31.6,-100.00,NNW,345,9.0,12.0,80,0.00,,,0.00,meteohub,2013-01-02 03:01:00,
2013-01-01 21:02:00,37.2,31.6,-100.00,NNW,346,5.0,12.0,80,0.00,,,0.00,meteohub,2013-01-02 03:02:00,
2013-01-01 21:07:00,37.2,31.6,-100.00,NNW,343,4.0,12.0,80,0.00,,,0.00,meteohub,2013-01-02 03:07:00,
2013-01-01 21:12:00,37.0,31.5,-100.00,NNW,343,10.0,13.0,80,0.00,,,0.00,meteohub,2013-01-02 03:12:00,
2013-01-01 21:13:00,37.0,31.5,-100.00,NNW,347,10.0,13.0,80,0.00,,,0.00,meteohub,2013-01-02 03:13:00,
2013-01-01 21:17:00,37.0,31.1,-100.00,North,351,7.0,13.0,79,0.00,,,0.00,meteohub,2013-01-02 03:17:00,
2013-01-01 21:18:00,37.0,31.1,-100.00,North,349,10.0,13.0,79,0.00,,,0.00,meteohub,2013-01-02 03:18:00,
2013-01-01 21:23:00,36.9,31.3,-100.00,NNW,347,7.0,13.0,80,0.00,,,0.00,meteohub,2013-01-02 03:23:00,
2013-01-01 21:28:00,36.9,31.3,-100.00,NNW,345,6.0,12.0,80,0.00,,,0.00,meteohub,2013-01-02 03:28:00,
2013-01-01 21:33:00,37.0,31.5,-100.00,NNW,346,10.0,10.0,80,0.00,,,0.00,meteohub,2013-01-02 03:33:00,
2013-01-01 21:34:00,36.9,31.3,-100.00,NNW,347,7.0,10.0,80,0.00,,,0.00,meteohub,2013-01-02 03:34:00,
2013-01-01 21:38:00,36.9,31.3,-100.00,NNW,346,9.0,11.0,80,0.00,,,0.00,meteohub,2013-01-02 03:38:00,
2013-01-01 21:39:00,36.9,31.3,-100.00,North,0,10.0,11.0,80,0.00,,,0.00,meteohub,2013-01-02 03:39:00,
2013-01-01 21:44:00,36.9,30.9,-100.00,North,355,5.0,12.0,79,0.00,,,0.00,meteohub,2013-01-02 03:44:00,
2013-01-01 21:45:00,36.9,30.9,-100.00,North,355,2.0,12.0,79,0.00,,,0.00,meteohub,2013-01-02 03:45:00,
2013-01-01 21:49:00,36.9,30.9,-100.00,NNW,329,7.0,12.0,79,0.00,,,0.00,meteohub,2013-01-02 03:49:00,
2013-01-01 21:50:00,36.9,30.9,-100.00,NNW,329,5.0,12.0,79,0.00,,,0.00,meteohub,2013-01-02 03:50:00,
2013-01-01 21:55:00,36.9,30.9,-100.00,NNW,330,7.0,13.0,79,0.00,,,0.00,meteohub,2013-01-02 03:55:00,
2013-01-01 21:56:00,36.9,30.9,-100.00,NNW,331,11.0,13.0,79,0.00,,,0.00,meteohub,2013-01-02 03:56:00,
2013-01-01 22:00:00,36.9,30.9,-100.00,NNW,342,5.0,13.0,79,0.00,,,0.00,meteohub,2013-01-02 04:00:00,
2013-01-01 22:01:00,36.9,30.9,-100.00,NNW,336,9.0,13.0,79,0.00,,,0.00,meteohub,2013-01-02 04:01:00,
2013-01-01 22:02:00,36.9,30.9,-100.00,NNW,336,5.0,13.0,79,0.00,,,0.00,meteohub,2013-01-02 04:02:00,
2013-01-01 22:05:00,36.9,30.9,-100.00,NNW,344,8.0,11.0,79,0.00,,,0.00,meteohub,2013-01-02 04:05:00,
2013-01-01 22:06:00,36.9,30.9,-100.00,NNW,344,6.0,11.0,79,0.00,,,0.00,meteohub,2013-01-02 04:06:00,
2013-01-01 22:07:00,36.9,30.9,-100.00,NNW,340,10.0,11.0,79,0.00,,,0.00,meteohub,2013-01-02 04:07:00,
2013-01-01 22:10:00,36.9,30.9,-100.00,NNW,334,7.0,11.0,79,0.00,,,0.00,meteohub,2013-01-02 04:10:00,
2013-01-01 22:11:00,36.9,30.9,-100.00,NNW,335,10.0,11.0,79,0.00,,,0.00,meteohub,2013-01-02 04:11:00,
2013-01-01 22:12:00,36.9,30.9,-100.00,NNW,338,11.0,11.0,79,0.00,,,0.00,meteohub,2013-01-02 04:12:00,
2013-01-01 22:16:00,36.9,30.9,-100.00,NNW,334,11.0,12.0,79,0.00,,,0.00,meteohub,2013-01-02 04:16:00,
2013-01-01 22:17:00,36.9,30.9,-100.00,NNW,333,9.0,12.0,79,0.00,,,0.00,meteohub,2013-01-02 04:17:00,
2013-01-01 22:21:00,36.9,30.9,-100.00,NNW,331,7.0,13.0,79,0.00,,,0.00,meteohub,2013-01-02 04:21:00,
2013-01-01 22:22:00,36.9,30.9,-100.00,NNW,331,11.0,13.0,79,0.00,,,0.00,meteohub,2013-01-02 04:22:00,
2013-01-01 22:26:00,36.9,30.9,-100.00,NNW,343,5.0,13.0,79,0.00,,,0.00,meteohub,2013-01-02 04:26:00,
2013-01-01 22:27:00,36.9,30.9,-100.00,NNW,336,6.0,13.0,79,0.00,,,0.00,meteohub,2013-01-02 04:27:00,
2013-01-01 22:31:00,36.9,30.9,-100.00,NNW,340,10.0,13.0,79,0.00,,,0.00,meteohub,2013-01-02 04:31:00,
2013-01-01 22:32:00,36.9,30.9,-100.00,NNW,327,7.0,13.0,79,0.00,,,0.00,meteohub,2013-01-02 04:32:00,
2013-01-01 22:33:00,36.9,30.9,-100.00,NW,326,6.0,13.0,79,0.00,,,0.00,meteohub,2013-01-02 04:33:00,
2013-01-01 22:36:00,36.9,30.9,-100.00,NW,325,5.0,14.0,79,0.00,,,0.00,meteohub,2013-01-02 04:36:00,
2013-01-01 22:37:00,36.7,30.7,-100.00,NNW,334,12.0,14.0,79,0.00,,,0.00,meteohub,2013-01-02 04:37:00,
2013-01-01 22:38:00,36.7,30.7,-100.00,NNW,331,11.0,14.0,79,0.00,,,0.00,meteohub,2013-01-02 04:38:00,
2013-01-01 22:41:00,36.7,30.7,-100.00,NNW,339,7.0,15.0,79,0.00,,,0.00,meteohub,2013-01-02 04:41:00,
2013-01-01 22:43:00,36.7,30.7,-100.00,NNW,341,10.0,15.0,79,0.00,,,0.00,meteohub,2013-01-02 04:43:00,
2013-01-01 22:46:00,36.7,30.6,-100.00,NNW,331,6.0,15.0,78,0.00,,,0.00,meteohub,2013-01-02 04:46:00,
2013-01-01 22:48:00,36.7,30.6,-100.00,NNW,330,9.0,15.0,78,0.00,,,0.00,meteohub,2013-01-02 04:48:00,
2013-01-01 22:49:00,36.7,30.6,-100.00,NNW,330,7.0,15.0,78,0.00,,,0.00,meteohub,2013-01-02 04:49:00,
2013-01-01 22:51:00,36.5,30.4,-100.00,NNW,329,8.0,15.0,78,0.00,,,0.00,meteohub,2013-01-02 04:51:00,
2013-01-01 22:54:00,36.5,30.4,-100.00,NNW,328,8.0,15.0,78,0.00,,,0.00,meteohub,2013-01-02 04:54:00,
2013-01-01 22:57:00,36.5,30.4,-100.00,NNW,341,4.0,13.0,78,0.00,,,0.00,meteohub,2013-01-02 04:57:00,
2013-01-01 22:59:00,36.5,30.4,-100.00,NNW,335,7.0,13.0,78,0.00,,,0.00,meteohub,2013-01-02 04:59:00,
2013-01-01 23:00:00,36.5,30.4,-100.00,NNW,345,6.0,13.0,78,0.00,,,0.00,meteohub,2013-01-02 05:00:00,
2013-01-01 23:02:00,36.5,30.4,-100.00,NNW,345,4.0,13.0,78,0.00,,,0.00,meteohub,2013-01-02 05:02:00,
2013-01-01 23:05:00,36.5,30.4,-100.00,NNW,343,7.0,12.0,78,0.00,,,0.00,meteohub,2013-01-02 05:05:00,
2013-01-01 23:07:00,36.5,30.4,-100.00,NNW,348,6.0,12.0,78,0.00,,,0.00,meteohub,2013-01-02 05:07:00,
2013-01-01 23:10:00,36.3,30.2,-100.00,NNW,348,7.0,12.0,78,0.00,,,0.00,meteohub,2013-01-02 05:10:00,
2013-01-01 23:11:00,36.3,30.2,-100.00,NNW,348,6.0,12.0,78,0.00,,,0.00,meteohub,2013-01-02 05:11:00,
2013-01-01 23:12:00,36.3,30.2,-100.00,NNW,348,7.0,12.0,78,0.00,,,0.00,meteohub,2013-01-02 05:12:00,
2013-01-01 23:13:00,36.3,30.2,-100.00,NNW,345,6.0,12.0,78,0.00,,,0.00,meteohub,2013-01-02 05:13:00,
2013-01-01 23:16:00,36.3,30.2,-100.00,NNW,344,6.0,12.0,78,0.00,,,0.00,meteohub,2013-01-02 05:16:00,
2013-01-01 23:17:00,36.3,30.2,-100.00,NNW,342,6.0,12.0,78,0.00,,,0.00,meteohub,2013-01-02 05:17:00,
2013-01-01 23:18:00,36.3,30.2,-100.00,NNW,338,7.0,12.0,78,0.00,,,0.00,meteohub,2013-01-02 05:18:00,
2013-01-01 23:21:00,36.3,30.2,-100.00,NNW,336,5.0,12.0,78,0.00,,,0.00,meteohub,2013-01-02 05:21:00,
2013-01-01 23:22:00,36.3,30.2,-100.00,NNW,336,7.0,12.0,78,0.00,,,0.00,meteohub,2013-01-02 05:22:00,
2013-01-01 23:23:00,36.3,30.2,-100.00,NNW,335,6.0,12.0,78,0.00,,,0.00,meteohub,2013-01-02 05:23:00,
2013-01-01 23:26:00,36.3,30.2,-100.00,NNW,327,6.0,11.0,78,0.00,,,0.00,meteohub,2013-01-02 05:26:00,
2013-01-01 23:27:00,36.1,30.0,-100.00,NNW,329,7.0,11.0,78,0.00,,,0.00,meteohub,2013-01-02 05:27:00,
2013-01-01 23:28:00,36.1,30.0,-100.00,NNW,341,6.0,11.0,78,0.00,,,0.00,meteohub,2013-01-02 05:28:00,
2013-01-01 23:31:00,36.1,30.0,-100.00,NNW,336,7.0,12.0,78,0.00,,,0.00,meteohub,2013-01-02 05:31:00,
2013-01-01 23:32:00,36.1,30.0,-100.00,NNW,329,9.0,12.0,78,0.00,,,0.00,meteohub,2013-01-02 05:32:00,
2013-01-01 23:33:00,36.1,30.0,-100.00,NNW,339,10.0,12.0,78,0.00,,,0.00,meteohub,2013-01-02 05:33:00,
2013-01-01 23:37:00,36.1,30.0,-100.00,North,349,12.0,13.0,78,0.00,,,0.00,meteohub,2013-01-02 05:37:00,
2013-01-01 23:38:00,36.1,30.0,-100.00,NNW,341,11.0,13.0,78,0.00,,,0.00,meteohub,2013-01-02 05:38:00,
2013-01-01 23:39:00,36.1,30.0,-100.00,NNW,336,7.0,13.0,78,0.00,,,0.00,meteohub,2013-01-02 05:39:00,
2013-01-01 23:42:00,36.1,30.0,-100.00,NNW,338,11.0,13.0,78,0.00,,,0.00,meteohub,2013-01-02 05:42:00,
2013-01-01 23:43:00,36.1,30.0,-100.00,NNW,337,5.0,13.0,78,0.00,,,0.00,meteohub,2013-01-02 05:43:00,
2013-01-01 23:45:00,36.0,29.8,-100.00,NNW,342,5.0,13.0,78,0.00,,,0.00,meteohub,2013-01-02 05:45:00,
2013-01-01 23:47:00,36.0,29.8,-100.00,NNW,338,10.0,13.0,78,0.00,,,0.00,meteohub,2013-01-02 05:47:00,
2013-01-01 23:48:00,36.0,29.8,-100.00,NNW,338,6.0,13.0,78,0.00,,,0.00,meteohub,2013-01-02 05:48:00,
2013-01-01 23:50:00,36.0,29.8,-100.00,NNW,337,5.0,15.0,78,0.00,,,0.00,meteohub,2013-01-02 05:50:00,
2013-01-01 23:52:00,36.0,29.8,-100.00,NNW,334,6.0,15.0,78,0.00,,,0.00,meteohub,2013-01-02 05:52:00,
2013-01-01 23:53:00,36.0,29.8,-100.00,NNW,340,9.0,15.0,78,0.00,,,0.00,meteohub,2013-01-02 05:53:00,
2013-01-01 23:55:00,36.0,29.8,-100.00,NNW,340,6.0,15.0,78,0.00,,,0.00,meteohub,2013-01-02 05:55:00,
2013-01-01 23:58:00,36.0,29.8,-100.00,NNW,341,6.0,15.0,78,0.00,,,0.00,meteohub,2013-01-02 05:58:00,
2013-01-01 23:59:00,36.0,29.8,-100.00,NNW,348,10.0,15.0,78,0.00,,,0.00,meteohub,2013-01-02 05:59:00,